Air Quality Table

TIMESTAMP NO2 SO2 O3 CO TEMP HUM AIRPRES WS WD NO BENZENE
2022-06-26 09:00 26.56 µg/m3 1.86 µg/m3 43.9 µg/m3 0.27 mg/m3 33.74 °C 21.63 % 1,021.73 mbar 2.21 m/s 123.19 Deg 13.19 µg/m3 0.63 µg/m3
2022-06-26 08:00 32.9 µg/m3 2.14 µg/m3 35.36 µg/m3 0.38 mg/m3 28.73 °C 48.49 % 1,013.43 mbar 0.71 m/s 155.58 Deg 9.65 µg/m3 0.63 µg/m3
2022-06-26 07:00 32.81 µg/m3 1.68 µg/m3 22.77 µg/m3 0.3 mg/m3 26.21 °C 54.97 % 1,032.67 mbar 1.07 m/s 222.22 Deg 12.98 µg/m3 0.63 µg/m3
2022-06-26 06:00 36.13 µg/m3 1.09 µg/m3 15.54 µg/m3 0.25 mg/m3 25.03 °C 52.8 % 1,012.34 mbar 0.76 m/s 103.98 Deg 15.13 µg/m3 0.63 µg/m3
2022-06-26 05:00 32.14 µg/m3 0.84 µg/m3 22.38 µg/m3 0.22 mg/m3 25.43 °C 49.71 % 1,012.34 mbar 0.77 m/s 222.56 Deg 10.11 µg/m3 0.63 µg/m3
2022-06-26 04:00 36.91 µg/m3 0.43 µg/m3 19.59 µg/m3 0.21 mg/m3 25.5 °C 40.88 % 1,012.09 mbar 0.58 m/s 22 Deg 11.06 µg/m3 0.63 µg/m3
2022-06-26 03:00 50 µg/m3 1.35 µg/m3 16.9 µg/m3 0.16 mg/m3 24.93 °C 38.64 % 1,011.98 mbar 0.69 m/s 165.59 Deg 9.27 µg/m3 0.63 µg/m3
2022-06-26 02:00 33.04 µg/m3 1.48 µg/m3 23.29 µg/m3 0.31 mg/m3 25.66 °C 39.83 % 1,012.07 mbar 0.89 m/s 179.18 Deg 10.09 µg/m3 0.63 µg/m3
2022-06-26 01:00 49.27 µg/m3 1.74 µg/m3 14.73 µg/m3 0.37 mg/m3 25.99 °C 55.79 % 1,012.37 mbar 0.88 m/s 135.72 Deg 19.96 µg/m3 0.63 µg/m3
2022-06-26 00:00 60.28 µg/m3 1.86 µg/m3 7.38 µg/m3 0.42 mg/m3 26.5 °C 41.72 % 1,012.71 mbar 0.82 m/s 284.72 Deg 29.27 µg/m3 0.63 µg/m3
2022-06-25 23:00 58.07 µg/m3 1.91 µg/m3 11.73 µg/m3 0.46 mg/m3 26.05 °C 36.13 % 1,012.92 mbar 0.6 m/s 160.64 Deg 38.68 µg/m3 0.63 µg/m3
2022-06-25 22:00 67.64 µg/m3 1.92 µg/m3 5.85 µg/m3 0.55 mg/m3 27.27 °C 37.37 % 1,013.17 mbar 0.7 m/s 209.62 Deg 54.8 µg/m3 0.63 µg/m3
2022-06-25 21:00 60.11 µg/m3 1.6 µg/m3 11.67 µg/m3 0.43 mg/m3 27.7 °C 35.79 % 1,008.02 mbar 0.46 m/s 128.55 Deg 32.6 µg/m3 0.63 µg/m3
2022-06-25 20:00 63.15 µg/m3 1.57 µg/m3 16.9 µg/m3 0.42 mg/m3 29.88 °C 36.54 % 1,012.60 mbar 0.57 m/s 218.59 Deg 28.72 µg/m3 0.63 µg/m3
2022-06-25 19:00 30.77 µg/m3 1.42 µg/m3 55.83 µg/m3 0.29 mg/m3 31.89 °C 29.93 % 1,012.38 mbar 1.01 m/s 244.8 Deg 10.2 µg/m3 0.63 µg/m3
2022-06-25 18:00 28.15 µg/m3 2.01 µg/m3 66.24 µg/m3 0.39 mg/m3 32.94 °C 28.49 % 1,012.32 mbar 1.49 m/s 231.4 Deg 6.84 µg/m3 0.63 µg/m3
2022-06-25 17:00 28.57 µg/m3 1.78 µg/m3 63.81 µg/m3 0.35 mg/m3 32.84 °C 26.99 % 1,012.38 mbar 1.99 m/s 234.53 Deg 9.47 µg/m3 0.63 µg/m3
2022-06-25 16:00 26.95 µg/m3 1.1 µg/m3 67.81 µg/m3 0.6 mg/m3 29.61 °C 51.94 % 1,012.88 mbar 2.65 m/s 238.45 Deg 6.68 µg/m3 0.63 µg/m3
2022-06-25 15:00 28.09 µg/m3 1.54 µg/m3 51.67 µg/m3 0.4 mg/m3 28.99 °C 57.75 % 1,012.77 mbar 2.77 m/s 192.74 Deg 11.16 µg/m3 0.63 µg/m3
2022-06-25 14:00 25.12 µg/m3 1.3 µg/m3 42.72 µg/m3 0.39 mg/m3 27.36 °C 81.55 % 1,013.42 mbar 3.12 m/s 51.67 Deg 8.39 µg/m3 0.63 µg/m3
2022-06-25 13:00 24.54 µg/m3 0.77 µg/m3 35.56 µg/m3 0.32 mg/m3 27.31 °C 82.82 % 1,013.85 mbar 3.13 m/s 55.7 Deg 10.73 µg/m3 0.63 µg/m3
2022-06-25 12:00 29.33 µg/m3 1.82 µg/m3 39.91 µg/m3 0.31 mg/m3 28.21 °C 69.34 % 1,014.13 mbar 2.67 m/s 34.95 Deg 13.7 µg/m3 0.63 µg/m3
2022-06-25 11:00 32.66 µg/m3 2.21 µg/m3 36.89 µg/m3 0.29 mg/m3 29.38 °C 55.07 % 1,014.12 mbar 2.51 m/s 195.91 Deg 15.16 µg/m3 0.63 µg/m3
2022-06-25 10:00 36.78 µg/m3 2.69 µg/m3 34.07 µg/m3 0.35 mg/m3 30.16 °C 36.76 % 1,023.05 mbar 1.55 m/s 189.93 Deg 16.32 µg/m3 0.63 µg/m3
2022-06-25 09:00 40.88 µg/m3 2.14 µg/m3 33.35 µg/m3 0.41 mg/m3 28.82 °C 38.83 % 1,013.59 mbar 1.5 m/s 66.84 Deg 22.81 µg/m3 0.63 µg/m3
2022-06-25 08:00 43.37 µg/m3 1.78 µg/m3 21.35 µg/m3 0.25 mg/m3 28.79 °C 30.8 % 1,013.33 mbar 1.03 m/s 165.38 Deg 28.05 µg/m3 0.63 µg/m3
2022-06-25 07:00 44.38 µg/m3 2.09 µg/m3 4.18 µg/m3 0.3 mg/m3 25.71 °C 36.79 % 1,013.09 mbar 19.88 m/s 174.71 Deg 77.58 µg/m3 0.63 µg/m3
2022-06-25 06:00 44.15 µg/m3 1.77 µg/m3 4.11 µg/m3 0.3 mg/m3 24.51 °C 32.13 % 1,012.73 mbar 0.52 m/s 195.23 Deg 92.71 µg/m3 0.63 µg/m3
2022-06-25 05:00 32.05 µg/m3 0.88 µg/m3 12.59 µg/m3 0.21 mg/m3 24.18 °C 33.47 % 1,012.39 mbar 1.05 m/s 227.94 Deg 37.19 µg/m3 0.63 µg/m3
2022-06-25 04:00 32.09 µg/m3 0.53 µg/m3 17.26 µg/m3 0.19 mg/m3 24.2 °C 42.16 % 1,012.17 mbar 0.43 m/s 209.28 Deg 12.29 µg/m3 0.63 µg/m3
2022-06-25 03:00 44.27 µg/m3 0.74 µg/m3 19.12 µg/m3 0.1 mg/m3 24.23 °C 53.72 % 1,012.32 mbar 0.38 m/s 210.29 Deg 18.65 µg/m3 0.63 µg/m3
2022-06-25 02:00 21.06 µg/m3 0.52 µg/m3 17.33 µg/m3 0.18 mg/m3 23.88 °C 60.52 % 1,012.43 mbar 0.54 m/s 221.48 Deg 5.81 µg/m3 0.63 µg/m3
2022-06-25 01:00 40.96 µg/m3 1.21 µg/m3 6.28 µg/m3 0.23 mg/m3 24.06 °C 63.64 % 1,012.82 mbar 0.57 m/s 244.15 Deg 22.41 µg/m3 0.63 µg/m3
2022-06-25 00:00 48.05 µg/m3 1.35 µg/m3 6.29 µg/m3 0.31 mg/m3 25.18 °C 57.17 % 1,012.91 mbar 0.68 m/s 261.17 Deg 41.65 µg/m3 0.63 µg/m3
2022-06-24 23:00 30.58 µg/m3 0.89 µg/m3 23.53 µg/m3 0.24 mg/m3 -503 °C 47.19 % 988.76 mbar 1.67 m/s 204.61 Deg 18.41 µg/m3 0.63 µg/m3
2022-06-24 22:00 32.66 µg/m3 0.86 µg/m3 22.55 µg/m3 0.26 mg/m3 25.87 °C 57.92 % 1,012.76 mbar 1.33 m/s 144.81 Deg 16.99 µg/m3 0.63 µg/m3
2022-06-24 21:00 36.38 µg/m3 0.51 µg/m3 26.4 µg/m3 0.22 mg/m3 26.15 °C 68.03 % 1,012.46 mbar 1.29 m/s 211.31 Deg 12.93 µg/m3 0.63 µg/m3
2022-06-24 20:00 28.41 µg/m3 0.34 µg/m3 34.32 µg/m3 0.17 mg/m3 26.86 °C 71.19 % 1,012.25 mbar 1.85 m/s 221.13 Deg 8.92 µg/m3 0.63 µg/m3
2022-06-24 19:00 16.33 µg/m3 0.39 µg/m3 43.16 µg/m3 0.1 mg/m3 28.58 °C 52.23 % 1,011.90 mbar 2.91 m/s 181.68 Deg 4.39 µg/m3 0.63 µg/m3
2022-06-24 18:00 12.33 µg/m3 0.69 µg/m3 42.5 µg/m3 0.09 mg/m3 29.48 °C 38.3 % 1,012.01 mbar 4.21 m/s 220.52 Deg 6.22 µg/m3 0.63 µg/m3
2022-06-24 17:00 11.19 µg/m3 0.74 µg/m3 46.11 µg/m3 0.1 mg/m3 30.13 °C 41.6 % 1,012.14 mbar 4.6 m/s 148.71 Deg 4.82 µg/m3 0.63 µg/m3
2022-06-24 16:00 12.05 µg/m3 0.91 µg/m3 58.22 µg/m3 0.1 mg/m3 30.17 °C 45.68 % 1,012.53 mbar 4.48 m/s 194.76 Deg 4.56 µg/m3 0.63 µg/m3
2022-06-24 15:00 15.34 µg/m3 1.09 µg/m3 59.86 µg/m3 0.1 mg/m3 30.61 °C 45.25 % 1,013.07 mbar 4.25 m/s 178.36 Deg 5.77 µg/m3 0.63 µg/m3
2022-06-24 14:00 18.31 µg/m3 0.96 µg/m3 52.72 µg/m3 0.11 mg/m3 31.52 °C 38.51 % 1,013.19 mbar 3.7 m/s 219.16 Deg 8.98 µg/m3 0.63 µg/m3
2022-06-24 13:00 16.05 µg/m3 1.34 µg/m3 54.21 µg/m3 0.11 mg/m3 31.35 °C 37.02 % 1,013.48 mbar 3.86 m/s 150.83 Deg 6.95 µg/m3 0.63 µg/m3
2022-06-24 12:00 17.92 µg/m3 1.39 µg/m3 58.89 µg/m3 0.11 mg/m3 31.19 °C 37.89 % 995.29 mbar 21.49 m/s 199.18 Deg 7.46 µg/m3 0.63 µg/m3
2022-06-24 11:00 13.79 µg/m3 0.64 µg/m3 62.96 µg/m3 0.12 mg/m3 30.19 °C 44.25 % 1,013.72 mbar 3.61 m/s 205.35 Deg 5.28 µg/m3 0.63 µg/m3
2022-06-24 10:00 17.16 µg/m3 0.51 µg/m3 61.17 µg/m3 0.14 mg/m3 30.02 °C 42.65 % 1,013.51 mbar 3.56 m/s 212.24 Deg 8.78 µg/m3 0.63 µg/m3
2022-06-24 09:00 24.27 µg/m3 0.75 µg/m3 55.99 µg/m3 0.15 mg/m3 29.62 °C 43.54 % 1,013.24 mbar 22.49 m/s 181.5 Deg 11.21 µg/m3 0.63 µg/m3
2022-06-24 08:00 26.97 µg/m3 0.38 µg/m3 48.13 µg/m3 0.17 mg/m3 28.14 °C 54.44 % 1,012.93 mbar 2.4 m/s 201.82 Deg 10.47 µg/m3 0.63 µg/m3
2022-06-24 07:00 35.39 µg/m3 0.54 µg/m3 25.76 µg/m3 0.2 mg/m3 25.76 °C 82.38 % 1,012.55 mbar 2.32 m/s 244.91 Deg 16.01 µg/m3 0.63 µg/m3
2022-06-24 06:00 45.68 µg/m3 0.46 µg/m3 24.75 µg/m3 0.22 mg/m3 24.52 °C 74.41 % 1,012.32 mbar 2.52 m/s 215.85 Deg 28.54 µg/m3 0.63 µg/m3
2022-06-24 05:00 25.47 µg/m3 0.16 µg/m3 41.83 µg/m3 0.16 mg/m3 24.41 °C 73.51 % 1,012.27 mbar 2.95 m/s 242.07 Deg 8.66 µg/m3 0.31 µg/m3
2022-06-24 04:00 16.63 µg/m3 0.09 µg/m3 59.28 µg/m3 0.14 mg/m3 24.3 °C 67.13 % 1,012.35 mbar 2.89 m/s 203.81 Deg 2.06 µg/m3 0.16 µg/m3
2022-06-24 03:00 25.39 µg/m3 0.23 µg/m3 58.8 µg/m3 0.09 mg/m3 24.57 °C 58.99 % 1,012.79 mbar 2.31 m/s 236.63 Deg 1.11 µg/m3 0.26 µg/m3
2022-06-24 02:00 9.13 µg/m3 -0.08 µg/m3 56.44 µg/m3 0.16 mg/m3 24.13 °C 61.6 % 1,013.15 mbar 2.45 m/s 226.32 Deg 1.19 µg/m3 0.73 µg/m3
2022-06-24 01:00 21.43 µg/m3 0.39 µg/m3 41.43 µg/m3 0.18 mg/m3 24.1 °C 55.05 % 1,013.57 mbar 1.48 m/s 195.92 Deg 4.07 µg/m3 0.63 µg/m3
2022-06-24 00:00 30.48 µg/m3 0.59 µg/m3 34.26 µg/m3 0.22 mg/m3 24.59 °C 56.19 % 1,013.78 mbar 0.9 m/s 186.86 Deg 7.19 µg/m3 0.73 µg/m3
2022-06-23 23:00 27.76 µg/m3 0.44 µg/m3 31.55 µg/m3 0.23 mg/m3 23.9 °C 72.67 % 1,014.22 mbar 1.01 m/s 215.46 Deg 7.41 µg/m3 1.42 µg/m3
2022-06-23 22:00 39.88 µg/m3 0.49 µg/m3 25.15 µg/m3 0.28 mg/m3 24.92 °C 74.06 % 1,014.25 mbar 0.77 m/s 252.24 Deg 12.72 µg/m3 1.78 µg/m3
2022-06-23 21:00 30.4 µg/m3 0.27 µg/m3 42.74 µg/m3 0.2 mg/m3 25.87 °C 68.79 % 1,013.84 mbar 1.65 m/s 225.11 Deg 7.95 µg/m3 0.73 µg/m3
2022-06-23 20:00 20.36 µg/m3 0.18 µg/m3 53.32 µg/m3 0.19 mg/m3 26.34 °C 66.12 % 1,013.03 mbar 3.35 m/s 209.16 Deg 3.02 µg/m3 0.47 µg/m3
2022-06-23 19:00 15.63 µg/m3 0.24 µg/m3 56.03 µg/m3 0.16 mg/m3 26.78 °C 70.86 % 1,012.92 mbar 5.01 m/s 221.14 Deg 3.12 µg/m3 0.31 µg/m3
2022-06-23 18:00 10.64 µg/m3 0.13 µg/m3 67.46 µg/m3 0.15 mg/m3 27.66 °C 62.1 % 1,012.85 mbar 5.57 m/s 257.17 Deg 2.57 µg/m3 0.31 µg/m3
2022-06-23 17:00 12.9 µg/m3 0.04 µg/m3 65.99 µg/m3 0.16 mg/m3 28.23 °C 58.68 % 1,013.33 mbar 5.02 m/s 244.41 Deg 3.7 µg/m3 0.26 µg/m3
2022-06-23 16:00 11.45 µg/m3 0.15 µg/m3 64.2 µg/m3 0.15 mg/m3 28.26 °C 63.43 % 1,013.78 mbar 5.76 m/s 243.64 Deg 3.55 µg/m3 0.26 µg/m3
2022-06-23 15:00 10.63 µg/m3 0.33 µg/m3 67.34 µg/m3 0.18 mg/m3 28.87 °C 56.89 % 1,013.92 mbar 5.39 m/s 218.76 Deg 3.74 µg/m3 0.37 µg/m3
2022-06-23 14:00 9.46 µg/m3 0.11 µg/m3 71.83 µg/m3 0.16 mg/m3 29 °C 49.75 % 1,014.34 mbar 4.99 m/s 791.81 Deg 3.19 µg/m3 0.37 µg/m3
2022-06-23 13:00 11.63 µg/m3 0.18 µg/m3 71.74 µg/m3 0.15 mg/m3 29.01 °C 48.05 % 1,014.33 mbar 4.65 m/s 260.62 Deg 5.22 µg/m3 0.31 µg/m3
2022-06-23 12:00 17.95 µg/m3 0.29 µg/m3 65.02 µg/m3 0.18 mg/m3 29.1 °C 51.15 % 1,014.40 mbar 4.26 m/s 210.9 Deg 7.65 µg/m3 0.47 µg/m3
2022-06-23 11:00 19.73 µg/m3 0.34 µg/m3 64.24 µg/m3 0.17 mg/m3 28.81 °C 49.75 % 1,014.25 mbar 4.29 m/s 196.18 Deg 7.83 µg/m3 0.37 µg/m3
2022-06-23 10:00 23.11 µg/m3 0.46 µg/m3 58.44 µg/m3 0.12 mg/m3 28.45 °C 52.79 % 1,014.32 mbar 3.73 m/s 159.61 Deg 9.24 µg/m3 0.47 µg/m3
2022-06-23 09:00 35.96 µg/m3 0.76 µg/m3 39.04 µg/m3 0.09 mg/m3 27.61 °C 59.97 % 1,014.18 mbar 3.33 m/s 205.54 Deg 12.3 µg/m3 0.05 µg/m3
2022-06-23 08:00 383.18 µg/m3 97.94 µg/m3 133.5 µg/m3 0.12 mg/m3 26.48 °C 69.15 % 1,013.91 mbar 2.9 m/s 239.03 Deg 10.86 µg/m3 0.37 µg/m3
2022-06-23 07:00 25.83 µg/m3 0.48 µg/m3 32.24 µg/m3 0.23 mg/m3 24.98 °C 83.08 % 1,013.50 mbar 2.42 m/s 255.59 Deg 10.37 µg/m3 0.73 µg/m3
2022-06-23 06:00 38.55 µg/m3 0.21 µg/m3 23.86 µg/m3 0.23 mg/m3 24.03 °C 81.4 % 1,013.19 mbar 2.84 m/s 242.06 Deg 23 µg/m3 0.47 µg/m3
2022-06-23 05:00 31.61 µg/m3 -0.07 µg/m3 43.71 µg/m3 0.19 mg/m3 23.47 °C 66.4 % 1,012.83 mbar 2.06 m/s 212.75 Deg 14.32 µg/m3 0.31 µg/m3
2022-06-23 04:00 20.03 µg/m3 0.08 µg/m3 55.4 µg/m3 0.14 mg/m3 23.38 °C 61.67 % 1,012.32 mbar 2.03 m/s 192.83 Deg 4.73 µg/m3 0.26 µg/m3
2022-06-23 03:00 25.9 µg/m3 0.01 µg/m3 55.38 µg/m3 0.08 mg/m3 23.74 °C 66.38 % 1,012.38 mbar 1.99 m/s 229.14 Deg 2.91 µg/m3 0.21 µg/m3
2022-06-23 02:00 13.09 µg/m3 0.01 µg/m3 45.88 µg/m3 0.15 mg/m3 23.72 °C 65.48 % 1,012.60 mbar 1.46 m/s 209.52 Deg 2.44 µg/m3 0.31 µg/m3
2022-06-23 01:00 15.74 µg/m3 0.08 µg/m3 53.36 µg/m3 0.15 mg/m3 24.03 °C 60.44 % 994.75 mbar 1.42 m/s 221.81 Deg 2.71 µg/m3 0.63 µg/m3
2022-06-23 00:00 16.87 µg/m3 0.1 µg/m3 42.71 µg/m3 0.18 mg/m3 24.13 °C 67.95 % 1,013.22 mbar 1.84 m/s 217.46 Deg 3.38 µg/m3 0.37 µg/m3
2022-06-22 23:00 18.28 µg/m3 -0.04 µg/m3 36.17 µg/m3 0.19 mg/m3 24.02 °C 85.87 % 1,013.45 mbar 2.1 m/s 235.18 Deg 5.67 µg/m3 0.68 µg/m3
2022-06-22 22:00 20.77 µg/m3 0.26 µg/m3 33.66 µg/m3 0.19 mg/m3 24.28 °C 86.24 % 1,013.60 mbar 2.14 m/s 242.52 Deg 5.78 µg/m3 0.73 µg/m3
2022-06-22 21:00 24.28 µg/m3 0.01 µg/m3 41.51 µg/m3 0.19 mg/m3 24.52 °C 82.56 % 1,013.16 mbar 1.66 m/s 243.32 Deg 6.71 µg/m3 0.63 µg/m3
2022-06-22 20:00 13.06 µg/m3 -0.02 µg/m3 53.94 µg/m3 0.16 mg/m3 25.28 °C 79.56 % 1,012.98 mbar 2.64 m/s 261.47 Deg 2.24 µg/m3 0.47 µg/m3
2022-06-22 19:00 12.77 µg/m3 0.18 µg/m3 49.44 µg/m3 0.14 mg/m3 26.21 °C 73.59 % 1,012.97 mbar 3.19 m/s 233.11 Deg 4.08 µg/m3 0.42 µg/m3
2022-06-22 18:00 12.02 µg/m3 0.11 µg/m3 56.56 µg/m3 0.13 mg/m3 26.98 °C 66.85 % 1,012.93 mbar 3.83 m/s 223.74 Deg 4.36 µg/m3 0.37 µg/m3
2022-06-22 17:00 17.64 µg/m3 0.03 µg/m3 53.85 µg/m3 0.14 mg/m3 27.9 °C 59.25 % 1,013.06 mbar 3.53 m/s 214.09 Deg 9.95 µg/m3 0.42 µg/m3
2022-06-22 16:00 10.05 µg/m3 0.39 µg/m3 64.95 µg/m3 0.12 mg/m3 28.54 °C 48.31 % 1,013.68 mbar 3.84 m/s 176.03 Deg 4.04 µg/m3 0.31 µg/m3
2022-06-22 15:00 9.62 µg/m3 0.3 µg/m3 66.17 µg/m3 0.13 mg/m3 28.1 °C 53.09 % 1,013.83 mbar 3.98 m/s 242.08 Deg 4.3 µg/m3 0.05 µg/m3
2022-06-22 14:00 10.46 µg/m3 -0.04 µg/m3 64.52 µg/m3 0.13 mg/m3 28 °C 57.08 % 1,013.58 mbar 4.86 m/s 185.89 Deg 4.07 µg/m3 0.26 µg/m3
2022-06-22 13:00 10.44 µg/m3 0.13 µg/m3 66.26 µg/m3 0.14 mg/m3 27.27 °C 59.96 % 1,013.60 mbar 5.83 m/s 176.37 Deg 4.22 µg/m3 0.37 µg/m3
2022-06-22 12:00 12.76 µg/m3 0.09 µg/m3 58.9 µg/m3 0.15 mg/m3 27.17 °C 62.2 % 1,013.97 mbar 5.56 m/s 246.38 Deg 6.2 µg/m3 0.26 µg/m3
2022-06-22 11:00 12.58 µg/m3 -0.05 µg/m3 64.76 µg/m3 0.16 mg/m3 27.15 °C 58.81 % 997.14 mbar 4.61 m/s 210.04 Deg 4.69 µg/m3 0.37 µg/m3
2022-06-22 10:00 19.04 µg/m3 0.04 µg/m3 50.65 µg/m3 0.16 mg/m3 26.5 °C 70.61 % 1,013.91 mbar 4.11 m/s 219.7 Deg 14.25 µg/m3 0.31 µg/m3
2022-06-22 09:00 17.1 µg/m3 0.03 µg/m3 49.82 µg/m3 0.16 mg/m3 26.06 °C 74.03 % 1,013.60 mbar 3.65 m/s 254.43 Deg 7.99 µg/m3 0.47 µg/m3
2022-06-22 08:00 23.48 µg/m3 -0.01 µg/m3 49.46 µg/m3 0.19 mg/m3 25.23 °C 82.68 % 1,013.38 mbar 2.72 m/s 239.35 Deg 11.33 µg/m3 0.63 µg/m3
2022-06-22 07:00 25.13 µg/m3 0.12 µg/m3 29.19 µg/m3 0.2 mg/m3 23.99 °C 90.62 % 1,012.73 mbar 2.36 m/s 248.98 Deg 10.03 µg/m3 0.26 µg/m3
2022-06-22 06:00 31.3 µg/m3 0.43 µg/m3 20.98 µg/m3 0.23 mg/m3 22.86 °C 94.96 % 1,012.35 mbar 2.36 m/s 241.95 Deg 17.77 µg/m3 6.14 µg/m3
2022-06-22 05:00 20.44 µg/m3 0 µg/m3 22.95 µg/m3 0.17 mg/m3 22.34 °C 96.03 % 1,012.20 mbar 2.2 m/s 244.75 Deg 7.84 µg/m3 0 µg/m3
2022-06-22 04:00 13.5 µg/m3 -0.13 µg/m3 41.06 µg/m3 0.14 mg/m3 22.54 °C 97.03 % 1,012.18 mbar 2.13 m/s 243.35 Deg 2.18 µg/m3 0.1 µg/m3
2022-06-22 03:00 25.83 µg/m3 0 µg/m3 33.33 µg/m3 0.11 mg/m3 22.83 °C 96.73 % 1,012.65 mbar 1.51 m/s 236.19 Deg 3.93 µg/m3 7.14 µg/m3
2022-06-22 02:00 3.24 µg/m3 -0.1 µg/m3 40.84 µg/m3 0.19 mg/m3 23.06 °C 95.54 % 1,012.97 mbar 1.55 m/s 240.92 Deg 0.27 µg/m3 0 µg/m3
2022-06-22 01:00 4.65 µg/m3 -0.17 µg/m3 46.13 µg/m3 0.19 mg/m3 23.24 °C 93.89 % 1,013.35 mbar 2.11 m/s 246.56 Deg 1.09 µg/m3 44.09 µg/m3
2022-06-22 00:00 8.62 µg/m3 0.22 µg/m3 50.88 µg/m3 0.21 mg/m3 23.42 °C 92.09 % 1,013.81 mbar 2.31 m/s 241.11 Deg 1.95 µg/m3 9.82 µg/m3
2022-06-21 23:00 10.87 µg/m3 -0 µg/m3 52.29 µg/m3 0.2 mg/m3 23.54 °C 89.76 % 1,014.06 mbar 2.73 m/s 244.84 Deg 2.26 µg/m3 0.73 µg/m3
2022-06-21 22:00 16.95 µg/m3 0.04 µg/m3 39.42 µg/m3 0.22 mg/m3 23.79 °C 87.4 % 1,014.26 mbar 2.45 m/s 243.24 Deg 4.67 µg/m3 0 µg/m3
2022-06-21 21:00 12.8 µg/m3 0.01 µg/m3 59.39 µg/m3 0.2 mg/m3 24.07 °C 84.17 % 1,014.16 mbar 2.4 m/s 253.41 Deg 2.2 µg/m3 0 µg/m3
2022-06-21 20:00 9.11 µg/m3 0.15 µg/m3 66.5 µg/m3 0.18 mg/m3 24.61 °C 79.04 % 1,014.06 mbar 3.33 m/s 257.69 Deg 1.38 µg/m3 0 µg/m3
2022-06-21 19:00 14.41 µg/m3 0.16 µg/m3 59.33 µg/m3 0.17 mg/m3 25.57 °C 74.01 % 1,014.15 mbar 3.57 m/s 229.64 Deg 3.99 µg/m3 14.01 µg/m3
2022-06-21 18:00 8.59 µg/m3 0.21 µg/m3 65.72 µg/m3 0.16 mg/m3 26.02 °C 70.57 % 1,014.06 mbar 5.01 m/s 246.75 Deg 2.42 µg/m3 0 µg/m3
2022-06-21 17:00 13.62 µg/m3 0.26 µg/m3 60.7 µg/m3 0.18 mg/m3 26.66 °C 67.64 % 1,014.37 mbar 4.67 m/s 259.55 Deg 5.38 µg/m3 0 µg/m3
2022-06-21 16:00 12.86 µg/m3 0.34 µg/m3 68.23 µg/m3 0.17 mg/m3 27.4 °C 61.24 % 1,014.85 mbar 4.24 m/s 237.44 Deg 5.12 µg/m3 0 µg/m3
2022-06-21 15:00 11.83 µg/m3 0.48 µg/m3 76.32 µg/m3 0.18 mg/m3 27.73 °C 58.4 % 1,014.97 mbar 4.1 m/s 249.07 Deg 4.69 µg/m3 0 µg/m3
2022-06-21 14:00 12.66 µg/m3 0.38 µg/m3 85.13 µg/m3 0.18 mg/m3 27.47 °C 58.45 % 1,015.23 mbar 4.06 m/s 246.34 Deg 4.33 µg/m3 0.37 µg/m3
2022-06-21 13:00 14.5 µg/m3 0.26 µg/m3 79.29 µg/m3 0.19 mg/m3 27.04 °C 64.73 % 1,015.42 mbar 4.35 m/s 226.47 Deg 5.01 µg/m3 10.71 µg/m3
2022-06-21 12:00 13.98 µg/m3 0.54 µg/m3 80.88 µg/m3 0.19 mg/m3 33.48 °C 63.28 % 1,015.60 mbar 4.34 m/s 232.16 Deg 3.99 µg/m3 14.7 µg/m3
2022-06-21 11:00 20.07 µg/m3 0.8 µg/m3 78.63 µg/m3 0.2 mg/m3 26.8 °C 59.28 % 997.42 mbar 4.07 m/s 146.08 Deg 6.82 µg/m3 0 µg/m3
2022-06-21 10:00 19.65 µg/m3 0.57 µg/m3 78.25 µg/m3 0.2 mg/m3 26.71 °C 59.57 % 1,016.00 mbar 3.64 m/s 178.01 Deg 7.61 µg/m3 0 µg/m3
2022-06-21 09:00 18.25 µg/m3 0.55 µg/m3 77.87 µg/m3 0.21 mg/m3 25.95 °C 64.95 % 1,016.02 mbar 3.12 m/s 216.11 Deg 6.51 µg/m3 0 µg/m3
2022-06-21 08:00 22.11 µg/m3 0.61 µg/m3 74.17 µg/m3 0.22 mg/m3 25.42 °C 64.58 % 1,015.56 mbar 2.2 m/s 227.41 Deg 7.33 µg/m3 7.56 µg/m3
2022-06-21 07:00 48.94 µg/m3 1.43 µg/m3 20.8 µg/m3 0.34 mg/m3 23.83 °C 79.19 % 1,014.88 mbar 0.99 m/s 238.48 Deg 42.4 µg/m3 15.27 µg/m3
2022-06-21 06:00 53.03 µg/m3 2.2 µg/m3 7.58 µg/m3 0.36 mg/m3 21.58 °C 89.94 % 1,014.52 mbar 0.96 m/s 232.1 Deg 77.37 µg/m3 33.96 µg/m3
2022-06-21 05:00 45.59 µg/m3 0.84 µg/m3 10.95 µg/m3 0.26 mg/m3 21.56 °C 89.76 % 1,014.40 mbar 0.94 m/s 226.13 Deg 36.66 µg/m3 0 µg/m3
2022-06-21 04:00 25.13 µg/m3 0.02 µg/m3 74.78 µg/m3 0.18 mg/m3 21.34 °C 87.85 % 1,014.37 mbar 0.92 m/s 230.16 Deg 5.88 µg/m3 4.36 µg/m3
2022-06-21 03:00 32.7 µg/m3 0.09 µg/m3 38.83 µg/m3 0.12 mg/m3 21.6 °C 85.08 % 1,014.85 mbar 1.02 m/s 230.99 Deg 8.05 µg/m3 1.68 µg/m3
2022-06-21 02:00 11.29 µg/m3 0.27 µg/m3 43.61 µg/m3 0.2 mg/m3 21.56 °C 82.84 % 1,014.99 mbar 0.92 m/s 239.23 Deg 1.12 µg/m3 0.79 µg/m3
2022-06-21 01:00 12.92 µg/m3 0.41 µg/m3 67.6 µg/m3 0.22 mg/m3 21.76 °C 81.69 % 1,015.22 mbar 0.85 m/s 239.55 Deg 1.67 µg/m3 8.14 µg/m3
2022-06-21 00:00 25.02 µg/m3 0.64 µg/m3 65.61 µg/m3 0.24 mg/m3 22.33 °C 79.15 % 1,015.57 mbar 0.75 m/s 235.79 Deg 3.77 µg/m3 1.36 µg/m3
2022-06-20 23:00 32.47 µg/m3 0.37 µg/m3 37.28 µg/m3 0.24 mg/m3 22.95 °C 76.99 % 1,015.89 mbar 0.77 m/s 221.76 Deg 4.5 µg/m3 0 µg/m3
2022-06-20 22:00 28.43 µg/m3 0.39 µg/m3 66.83 µg/m3 0.25 mg/m3 23.44 °C 73.56 % 1,015.82 mbar 0.73 m/s 215.98 Deg 3.24 µg/m3 0 µg/m3
2022-06-20 21:00 33.43 µg/m3 0.53 µg/m3 69.9 µg/m3 0.23 mg/m3 24.16 °C 69.65 % 1,015.45 mbar 0.75 m/s 204.48 Deg 5.7 µg/m3 4.41 µg/m3
2022-06-20 20:00 21.47 µg/m3 0.32 µg/m3 74.6 µg/m3 0.2 mg/m3 24.75 °C 66.4 % 1,015.08 mbar 1.68 m/s 178.01 Deg 2.11 µg/m3 0 µg/m3
2022-06-20 19:00 21.18 µg/m3 0.69 µg/m3 92.2 µg/m3 0.2 mg/m3 25.88 °C 60.85 % 1,014.81 mbar 2.24 m/s 231.15 Deg 3.59 µg/m3 5.2 µg/m3
2022-06-20 18:00 18.09 µg/m3 0.82 µg/m3 93.18 µg/m3 0.2 mg/m3 26.07 °C 57.62 % 1,014.75 mbar 2.63 m/s 246.09 Deg 3.96 µg/m3 11.28 µg/m3
2022-06-20 17:00 15.68 µg/m3 1.06 µg/m3 97.93 µg/m3 0.21 mg/m3 26.34 °C 65.86 % 1,014.52 mbar 2.19 m/s 175.48 Deg 4.29 µg/m3 0.79 µg/m3
2022-06-20 16:00 12.06 µg/m3 1.36 µg/m3 98.81 µg/m3 0.22 mg/m3 26.12 °C 67.57 % 1,014.59 mbar 2.22 m/s 161.16 Deg 2.84 µg/m3 9.87 µg/m3
2022-06-20 15:00 14.29 µg/m3 1.42 µg/m3 98.71 µg/m3 0.21 mg/m3 26.54 °C 60.34 % 1,014.75 mbar 2.4 m/s 21.82 Deg 4.57 µg/m3 2.26 µg/m3
2022-06-20 14:00 13.27 µg/m3 0.93 µg/m3 93.26 µg/m3 0.22 mg/m3 25.86 °C 62.21 % 1,015.00 mbar 3.08 m/s 92.99 Deg 3.66 µg/m3 0 µg/m3
2022-06-20 13:00 17.4 µg/m3 1.01 µg/m3 91.13 µg/m3 0.22 mg/m3 25.48 °C 64.76 % 1,015.06 mbar 3.08 m/s 68.77 Deg 5.87 µg/m3 0 µg/m3
2022-06-20 12:00 17.64 µg/m3 0.95 µg/m3 78.78 µg/m3 0.2 mg/m3 25.37 °C 1.42E+23 % 1,015.23 mbar 3.3 m/s 259.53 Deg 5.43 µg/m3 0 µg/m3
2022-06-20 11:00 18.96 µg/m3 1.25 µg/m3 70.76 µg/m3 0.2 mg/m3 24.94 °C 67.55 % 1,015.26 mbar 3.39 m/s 160.37 Deg 6 µg/m3 3.94 µg/m3
2022-06-20 10:00 22.35 µg/m3 1.04 µg/m3 66.73 µg/m3 0.17 mg/m3 24.53 °C 70.74 % 1,015.21 mbar 3.08 m/s 5.4 Deg 7.15 µg/m3 0 µg/m3
2022-06-20 09:00 30.71 µg/m3 1.07 µg/m3 59.22 µg/m3 0.19 mg/m3 24.13 °C 74.56 % 1,015.04 mbar 2.77 m/s 47.57 Deg 10.84 µg/m3 5.3 µg/m3
2022-06-20 08:00 29.91 µg/m3 1.13 µg/m3 59.64 µg/m3 0.23 mg/m3 23.99 °C 78.02 % 1,014.72 mbar 2.07 m/s 55.81 Deg 15.35 µg/m3 14.28 µg/m3
2022-06-20 07:00 39.51 µg/m3 1.58 µg/m3 25 µg/m3 0.31 mg/m3 23.33 °C 86.95 % 1,014.25 mbar 0.63 m/s 98.27 Deg 31.4 µg/m3 0 µg/m3
2022-06-20 06:00 53.29 µg/m3 2.24 µg/m3 -3.95 µg/m3 0.43 mg/m3 22.02 °C 91.9 % 1,013.78 mbar 0.06 m/s 179.15 Deg 98.37 µg/m3 8.92 µg/m3
2022-06-20 05:00 49.35 µg/m3 1.41 µg/m3 -7.1 µg/m3 0.35 mg/m3 21.76 °C 92 % 1,013.44 mbar 0.15 m/s 206.08 Deg 65.91 µg/m3 7.35 µg/m3
2022-06-20 04:00 34.93 µg/m3 0.72 µg/m3 25.54 µg/m3 0.21 mg/m3 22.35 °C 89.04 % 1,013.33 mbar 0.68 m/s 110.78 Deg 6.31 µg/m3 0 µg/m3
2022-06-20 03:00 42.74 µg/m3 0.31 µg/m3 35.92 µg/m3 0.14 mg/m3 22.29 °C 88 % 1,013.49 mbar 0.58 m/s 120.85 Deg 6.27 µg/m3 7.56 µg/m3
2022-06-20 02:00 16.7 µg/m3 0.38 µg/m3 36.08 µg/m3 0.24 mg/m3 22.04 °C 91.17 % 1,013.65 mbar 0.12 m/s 173.74 Deg 1.67 µg/m3 2.99 µg/m3
2022-06-20 01:00 26.08 µg/m3 0.43 µg/m3 19.36 µg/m3 0.23 mg/m3 22.27 °C 90.01 % 1,014.00 mbar 0.09 m/s 179.42 Deg 8.64 µg/m3 3.67 µg/m3
2022-06-20 00:00 30.1 µg/m3 0.56 µg/m3 19.36 µg/m3 0.31 mg/m3 22.37 °C 87.72 % 1,014.20 mbar 0.27 m/s 231.99 Deg 7.82 µg/m3 10.81 µg/m3
2022-06-19 23:00 41.64 µg/m3 1.1 µg/m3 16.4 µg/m3 0.34 mg/m3 22.65 °C 79.28 % 1,014.43 mbar 0.42 m/s 224.14 Deg 13.6 µg/m3 1.89 µg/m3
2022-06-19 22:00 59.64 µg/m3 1.47 µg/m3 15.73 µg/m3 0.47 mg/m3 23.3 °C 73.12 % 1,014.32 mbar 0.36 m/s 227.64 Deg 25.2 µg/m3 9.87 µg/m3
2022-06-19 21:00 66.83 µg/m3 1.35 µg/m3 17.31 µg/m3 0.39 mg/m3 23.9 °C 67.97 % 1,014.08 mbar 0.84 m/s 159.07 Deg 28.6 µg/m3 23.46 µg/m3
2022-06-19 20:00 52.71 µg/m3 0.98 µg/m3 41.98 µg/m3 0.3 mg/m3 25.33 °C 57.58 % 997.66 mbar 0.79 m/s 187.48 Deg 12.82 µg/m3 0 µg/m3
2022-06-19 19:00 34.49 µg/m3 1.05 µg/m3 65.67 µg/m3 0.26 mg/m3 27.18 °C 52.77 % 1,013.22 mbar 1.03 m/s 107.79 Deg 6.24 µg/m3 0.58 µg/m3
2022-06-19 18:00 24.38 µg/m3 1.13 µg/m3 75.24 µg/m3 0.26 mg/m3 26.6 °C 68.65 % 1,012.87 mbar 2.37 m/s 114.82 Deg 5.49 µg/m3 0.89 µg/m3
2022-06-19 17:00 21.11 µg/m3 0.83 µg/m3 82.95 µg/m3 0.27 mg/m3 26.59 °C 69.91 % 1,012.94 mbar 2.95 m/s 24.34 Deg 5.21 µg/m3 16.11 µg/m3
2022-06-19 16:00 17.51 µg/m3 1.11 µg/m3 87.31 µg/m3 0.23 mg/m3 26.29 °C 70.23 % 1,013.23 mbar 3.4 m/s 177.67 Deg 5.71 µg/m3 0.05 µg/m3
2022-06-19 15:00 14.72 µg/m3 0.93 µg/m3 88.65 µg/m3 0.21 mg/m3 25.61 °C 75.12 % 1,013.61 mbar 4.06 m/s 100.31 Deg 5.04 µg/m3 0 µg/m3
2022-06-19 14:00 10.48 µg/m3 0.4 µg/m3 94.15 µg/m3 0.24 mg/m3 25.34 °C 77.07 % 1,014.05 mbar 4.28 m/s 48.07 Deg 3.55 µg/m3 21.1 µg/m3
2022-06-19 13:00 11.73 µg/m3 0.5 µg/m3 99.05 µg/m3 0.23 mg/m3 25.2 °C 77.9 % 1,014.36 mbar 4.19 m/s 45.81 Deg 3.37 µg/m3 8.19 µg/m3
2022-06-19 12:00 14.27 µg/m3 0.48 µg/m3 93.52 µg/m3 0.24 mg/m3 24.95 °C 78.79 % 1,014.41 mbar 4.6 m/s 63.32 Deg 3.51 µg/m3 4.57 µg/m3
2022-06-19 11:00 14.71 µg/m3 0.65 µg/m3 109.97 µg/m3 0.24 mg/m3 25.09 °C 77.56 % 1,014.31 mbar 4.07 m/s 45.51 Deg 3.22 µg/m3 0 µg/m3
2022-06-19 10:00 15.36 µg/m3 0.61 µg/m3 95.61 µg/m3 0.27 mg/m3 25.35 °C 75.14 % 1,014.33 mbar 3.49 m/s 242.8 Deg 3.42 µg/m3 0 µg/m3
2022-06-19 09:00 14.94 µg/m3 0.47 µg/m3 81.95 µg/m3 0.26 mg/m3 24.92 °C 76.96 % 1,014.38 mbar 2.81 m/s 59.6 Deg 3.59 µg/m3 1.52 µg/m3
2022-06-19 08:00 16.79 µg/m3 0.43 µg/m3 103.21 µg/m3 0.25 mg/m3 24.49 °C 77.94 % 1,014.25 mbar 2.3 m/s 64.85 Deg 3.02 µg/m3 12.54 µg/m3
2022-06-19 07:00 16.35 µg/m3 0.28 µg/m3 74.99 µg/m3 0.22 mg/m3 23.65 °C 85.45 % 1,013.95 mbar 1.77 m/s 71.93 Deg 2.29 µg/m3 12.86 µg/m3
2022-06-19 06:00 24.02 µg/m3 0.31 µg/m3 51.02 µg/m3 0.21 mg/m3 22.46 °C 92.88 % 1,013.73 mbar 0.78 m/s 149.41 Deg 2.53 µg/m3 0.52 µg/m3
2022-06-19 05:00 21.65 µg/m3 0.27 µg/m3 61.21 µg/m3 0.19 mg/m3 22.24 °C 94.24 % 1,013.36 mbar 0.73 m/s 169.83 Deg 1.33 µg/m3 0.68 µg/m3
2022-06-19 04:00 29.08 µg/m3 0 µg/m3 38.67 µg/m3 0.2 mg/m3 21.91 °C 93.63 % 1,013.35 mbar 0.51 m/s 214.36 Deg 2.98 µg/m3 0.63 µg/m3
2022-06-19 03:00 40.18 µg/m3 0.14 µg/m3 45.93 µg/m3 0.13 mg/m3 22.28 °C 92.93 % 1,013.48 mbar 0.5 m/s 307.63 Deg 5.53 µg/m3 0.47 µg/m3
2022-06-19 02:00 18.5 µg/m3 0.12 µg/m3 58.14 µg/m3 0.19 mg/m3 22.59 °C 91.19 % 1,013.63 mbar 0.7 m/s 109.18 Deg 1.09 µg/m3 0.63 µg/m3
2022-06-19 01:00 24.37 µg/m3 0.28 µg/m3 64.65 µg/m3 0.19 mg/m3 23.07 °C 89.17 % 1,013.88 mbar 0.75 m/s 90.96 Deg 2.39 µg/m3 0.89 µg/m3
2022-06-19 00:00 21.86 µg/m3 0.4 µg/m3 74.8 µg/m3 0.21 mg/m3 23.25 °C 84.98 % 1,013.98 mbar 1.1 m/s 48.2 Deg 2.03 µg/m3 0.84 µg/m3
2022-06-18 23:00 31.79 µg/m3 0.53 µg/m3 50.68 µg/m3 0.21 mg/m3 23.51 °C 80.17 % 1,013.87 mbar 1.05 m/s 41.99 Deg 4.29 µg/m3 0.73 µg/m3
2022-06-18 22:00 26.54 µg/m3 0.35 µg/m3 64.88 µg/m3 0.22 mg/m3 23.88 °C 76.51 % 1,013.94 mbar 0.96 m/s 101.96 Deg 2.04 µg/m3 0.94 µg/m3
2022-06-18 21:00 21.56 µg/m3 0.39 µg/m3 75.46 µg/m3 0.21 mg/m3 23.93 °C 80.5 % 1,013.65 mbar 0.77 m/s 27.16 Deg 2.51 µg/m3 0.79 µg/m3
2022-06-18 20:00 19.81 µg/m3 0.25 µg/m3 74.52 µg/m3 0.22 mg/m3 24.16 °C 82.18 % 1,013.03 mbar 1.86 m/s 179.55 Deg 2.35 µg/m3 0.94 µg/m3
2022-06-18 19:00 18.73 µg/m3 0.26 µg/m3 81.16 µg/m3 0.22 mg/m3 24.61 °C 83.58 % 1,013.03 mbar 2.32 m/s 134.02 Deg 4.08 µg/m3 0.84 µg/m3
2022-06-18 18:00 16.11 µg/m3 0.32 µg/m3 74.13 µg/m3 0.2 mg/m3 24.65 °C 86.6 % 1,013.02 mbar 3.15 m/s 115.11 Deg 3.79 µg/m3 0.73 µg/m3
2022-06-18 17:00 16.7 µg/m3 0.45 µg/m3 71.16 µg/m3 0.21 mg/m3 24.91 °C 86.9 % 1,013.24 mbar 4.04 m/s 67.1 Deg 5.46 µg/m3 0.89 µg/m3
2022-06-18 16:00 17.71 µg/m3 0.41 µg/m3 77.05 µg/m3 0.21 mg/m3 26.04 °C 78.23 % 1,012.96 mbar 3.25 m/s 105.8 Deg 5.34 µg/m3 0.89 µg/m3
2022-06-18 15:00 17.53 µg/m3 0.42 µg/m3 82.91 µg/m3 0.22 mg/m3 26.03 °C 76.73 % 1,012.90 mbar 4.35 m/s 37.3 Deg 6.07 µg/m3 1.73 µg/m3
2022-06-18 14:00 16.07 µg/m3 1.17 µg/m3 82.79 µg/m3 0.27 mg/m3 25.95 °C 77.02 % 1,012.85 mbar 3.84 m/s 125.7 Deg 5.57 µg/m3 1.36 µg/m3
2022-06-18 13:00 19.41 µg/m3 0.59 µg/m3 71.71 µg/m3 0.25 mg/m3 25.8 °C 78.44 % 1,013.31 mbar 3.53 m/s 54.03 Deg 6.69 µg/m3 1.73 µg/m3
2022-06-18 12:00 20.36 µg/m3 0.3 µg/m3 73.08 µg/m3 0.23 mg/m3 25.91 °C 73.86 % 1,013.66 mbar 3.84 m/s 120.07 Deg 11.48 µg/m3 1.05 µg/m3
2022-06-18 11:00 24.45 µg/m3 0.39 µg/m3 66.8 µg/m3 0.26 mg/m3 24.93 °C 80.88 % 994.34 mbar 3.9 m/s 51.01 Deg 9.25 µg/m3 1.42 µg/m3
2022-06-18 10:00 23.88 µg/m3 0.99 µg/m3 59.51 µg/m3 0.26 mg/m3 24.84 °C 79.3 % 1,013.89 mbar 3.78 m/s 45.86 Deg 7.51 µg/m3 5.83 µg/m3
2022-06-18 09:00 18.6 µg/m3 0.83 µg/m3 59.7 µg/m3 0.28 mg/m3 24.45 °C 84.97 % 1,013.87 mbar 3.23 m/s 56.13 Deg 5.8 µg/m3 1.52 µg/m3
2022-06-18 08:00 20.87 µg/m3 0.6 µg/m3 60.37 µg/m3 0.22 mg/m3 24.23 °C 86.97 % 1,013.93 mbar 2.4 m/s 56.12 Deg 6 µg/m3 1.31 µg/m3
2022-06-18 07:00 22.85 µg/m3 0.56 µg/m3 55.31 µg/m3 0.23 mg/m3 23.81 °C 88.81 % 1,013.82 mbar 0.89 m/s 63.65 Deg 20.77 µg/m3 2.05 µg/m3
2022-06-18 06:00 34.61 µg/m3 0.33 µg/m3 28.19 µg/m3 0.22 mg/m3 23.09 °C 90.97 % 1,013.46 mbar 0.67 m/s 251.6 Deg 13 µg/m3 0.84 µg/m3
2022-06-18 05:00 21.46 µg/m3 0.06 µg/m3 43.66 µg/m3 0.18 mg/m3 22.95 °C 89.92 % 1,013.19 mbar 0.88 m/s 302.9 Deg 3.24 µg/m3 0.37 µg/m3
2022-06-18 04:00 17.38 µg/m3 -0.24 µg/m3 51.07 µg/m3 0.15 mg/m3 22.82 °C 90.49 % 1,013.18 mbar 1.57 m/s 248.19 Deg 1.86 µg/m3 0.47 µg/m3
2022-06-18 03:00 36.62 µg/m3 -0.13 µg/m3 35.4 µg/m3 0.1 mg/m3 22.72 °C 91.72 % 1,013.73 mbar 0.81 m/s 221.69 Deg 5.1 µg/m3 0.31 µg/m3
2022-06-18 02:00 6.75 µg/m3 -0.23 µg/m3 53.91 µg/m3 0.18 mg/m3 23.15 °C 89.49 % 1,014.37 mbar 2.29 m/s 235.78 Deg 1.05 µg/m3 0.42 µg/m3
2022-06-18 01:00 7.31 µg/m3 0.06 µg/m3 57.12 µg/m3 0.19 mg/m3 23.15 °C 89.07 % 1,014.72 mbar 2.98 m/s 248.01 Deg 1.24 µg/m3 0.31 µg/m3
2022-06-18 00:00 8.73 µg/m3 -0.06 µg/m3 51.18 µg/m3 0.2 mg/m3 22.98 °C 92.21 % 1,014.99 mbar 2.96 m/s 251.9 Deg 1.31 µg/m3 0.63 µg/m3
2022-06-17 23:00 13.94 µg/m3 0.13 µg/m3 47.51 µg/m3 0.22 mg/m3 23.43 °C 92.69 % 1,015.44 mbar 2.38 m/s 248.49 Deg 2.73 µg/m3 0.58 µg/m3
2022-06-17 22:00 15.45 µg/m3 0.15 µg/m3 49.66 µg/m3 0.19 mg/m3 23.56 °C 90.91 % 1,015.68 mbar 2.5 m/s 251.33 Deg 2.41 µg/m3 0.52 µg/m3
2022-06-17 21:00 14.11 µg/m3 0.16 µg/m3 50.57 µg/m3 0.19 mg/m3 23.8 °C 87.74 % 1,015.55 mbar 2.34 m/s 247.16 Deg 1.96 µg/m3 0.84 µg/m3
2022-06-17 20:00 18.22 µg/m3 0.22 µg/m3 51.21 µg/m3 0.19 mg/m3 24.31 °C 85.32 % 1,015.16 mbar 2.82 m/s 254.15 Deg 3.25 µg/m3 0.58 µg/m3
2022-06-17 19:00 13.27 µg/m3 0.19 µg/m3 60.29 µg/m3 0.16 mg/m3 25.14 °C 80.61 % 1,015.36 mbar 2.93 m/s 227.31 Deg 3.76 µg/m3 0.52 µg/m3
2022-06-17 18:00 14.52 µg/m3 0.17 µg/m3 59.79 µg/m3 0.17 mg/m3 25.88 °C 76.84 % 1,015.19 mbar 3.59 m/s 193.76 Deg 4.62 µg/m3 0.31 µg/m3
2022-06-17 17:00 12.49 µg/m3 0.47 µg/m3 64.06 µg/m3 0.16 mg/m3 26.12 °C 73.02 % 1,015.17 mbar 4.66 m/s 234.26 Deg 4.17 µg/m3 0.42 µg/m3
2022-06-17 16:00 13.57 µg/m3 0.77 µg/m3 64.61 µg/m3 0.16 mg/m3 26.48 °C 66.34 % 1,015.62 mbar 4.78 m/s 213.5 Deg 5.32 µg/m3 0.42 µg/m3
2022-06-17 15:00 16.04 µg/m3 1.17 µg/m3 60.88 µg/m3 0.17 mg/m3 27.02 °C 65.41 % 1,016.08 mbar 4.44 m/s 230.92 Deg 6.87 µg/m3 0.37 µg/m3
2022-06-17 14:00 17.51 µg/m3 1.17 µg/m3 67.24 µg/m3 0.17 mg/m3 27.13 °C 63.68 % 1,016.36 mbar 4.89 m/s 230.89 Deg 9.42 µg/m3 0.68 µg/m3
2022-06-17 13:00 17.34 µg/m3 1.03 µg/m3 70.52 µg/m3 0.19 mg/m3 26.33 °C 64.05 % 1,016.73 mbar 4.15 m/s 183.67 Deg 7.17 µg/m3 0.58 µg/m3
2022-06-17 12:00 16.28 µg/m3 0.94 µg/m3 69.45 µg/m3 0.18 mg/m3 26.61 °C 66.77 % 1,017.01 mbar 3.9 m/s 187.99 Deg 6.01 µg/m3 0.52 µg/m3
2022-06-17 11:00 20.38 µg/m3 1.65 µg/m3 75.4 µg/m3 0.19 mg/m3 27.4 °C 55.32 % 1,016.93 mbar 3.18 m/s 238.37 Deg 6.78 µg/m3 0.58 µg/m3
2022-06-17 10:00 25 µg/m3 1.5 µg/m3 66.16 µg/m3 0.2 mg/m3 27.04 °C 54.89 % 1,025.09 mbar 3.11 m/s 195 Deg 11.49 µg/m3 0.94 µg/m3
2022-06-17 09:00 24.45 µg/m3 1.18 µg/m3 60.25 µg/m3 0.23 mg/m3 25.23 °C 68.25 % 1,016.52 mbar 1.37 m/s 155.29 Deg 8.1 µg/m3 0.89 µg/m3
2022-06-17 08:00 32.37 µg/m3 1.22 µg/m3 48.92 µg/m3 0.26 mg/m3 25.38 °C 61.77 % 1,016.63 mbar 0.94 m/s 275.27 Deg 11.54 µg/m3 1.89 µg/m3
2022-06-17 07:00 52.63 µg/m3 1.63 µg/m3 17.66 µg/m3 0.33 mg/m3 23.32 °C 69.96 % 1,016.46 mbar 0.61 m/s 231.44 Deg 49.54 µg/m3 1.84 µg/m3
2022-06-17 06:00 48.31 µg/m3 1.55 µg/m3 1.53 µg/m3 0.31 mg/m3 20.65 °C 83.78 % 1,016.23 mbar 0.78 m/s 235.3 Deg 83.08 µg/m3 2.31 µg/m3
2022-06-17 05:00 34.97 µg/m3 0.78 µg/m3 8.25 µg/m3 0.27 mg/m3 20.35 °C 92.07 % 1,015.96 mbar 0.5 m/s 230.29 Deg 39.17 µg/m3 2.1 µg/m3
2022-06-17 04:00 34.51 µg/m3 0.4 µg/m3 10.85 µg/m3 0.23 mg/m3 21.51 °C 95.47 % 1,015.82 mbar 0.5 m/s 232.02 Deg 22.93 µg/m3 0.37 µg/m3
2022-06-17 03:00 26.17 µg/m3 0.14 µg/m3 41.55 µg/m3 0.11 mg/m3 21.87 °C 94.06 % 1,015.91 mbar 1.23 m/s 227.34 Deg 3.76 µg/m3 0.26 µg/m3
2022-06-17 02:00 5.76 µg/m3 0.16 µg/m3 47.56 µg/m3 0.17 mg/m3 22.01 °C 91.97 % 1,016.38 mbar 1.28 m/s 229.6 Deg 1.06 µg/m3 0.31 µg/m3
2022-06-17 01:00 9.28 µg/m3 0.09 µg/m3 49.44 µg/m3 0.18 mg/m3 22.06 °C 91.21 % 1,016.84 mbar 1.91 m/s 233.2 Deg 1.54 µg/m3 0.47 µg/m3
2022-06-17 00:00 13.34 µg/m3 0.34 µg/m3 47.36 µg/m3 0.21 mg/m3 22.01 °C 88.11 % 1,017.05 mbar 1.75 m/s 236.73 Deg 2.43 µg/m3 0.89 µg/m3
2022-06-16 23:00 26.23 µg/m3 0.5 µg/m3 32.76 µg/m3 0.25 mg/m3 21.92 °C 85.12 % 1,017.03 mbar 1.39 m/s 242.99 Deg 7.46 µg/m3 1.15 µg/m3
2022-06-16 22:00 25.47 µg/m3 0.64 µg/m3 31.15 µg/m3 0.24 mg/m3 22.47 °C 83.9 % 1,017.17 mbar 0.78 m/s 217.11 Deg 7.73 µg/m3 1.84 µg/m3
2022-06-16 21:00 33.21 µg/m3 0.61 µg/m3 36.72 µg/m3 0.24 mg/m3 23.64 °C 80.97 % 1,016.78 mbar 0.7 m/s 281.72 Deg 9.88 µg/m3 1.31 µg/m3
2022-06-16 20:00 24.17 µg/m3 0.22 µg/m3 53.52 µg/m3 0.18 mg/m3 24.46 °C 72 % 1,016.50 mbar 1.02 m/s 220.83 Deg 4.3 µg/m3 0.84 µg/m3
2022-06-16 19:00 18.9 µg/m3 0.38 µg/m3 66.22 µg/m3 0.16 mg/m3 25.74 °C 61.11 % 1,016.32 mbar 21.73 m/s 225.13 Deg 5.65 µg/m3 0.52 µg/m3
2022-06-16 18:00 14.24 µg/m3 0.49 µg/m3 72.89 µg/m3 0.15 mg/m3 26.09 °C 58.5 % 1,016.14 mbar 3.04 m/s 230.44 Deg 4.06 µg/m3 0.52 µg/m3
2022-06-16 17:00 15.16 µg/m3 0.27 µg/m3 67.53 µg/m3 0.16 mg/m3 26.11 °C 64.33 % 1,016.03 mbar 3.85 m/s 240.18 Deg 5.73 µg/m3 0.47 µg/m3
2022-06-16 16:00 15.86 µg/m3 0.53 µg/m3 70.43 µg/m3 0.13 mg/m3 26.44 °C 55.9 % 1,016.16 mbar 3.9 m/s 193.54 Deg 6.37 µg/m3 0.31 µg/m3
2022-06-16 15:00 15.67 µg/m3 0.44 µg/m3 71.25 µg/m3 0.15 mg/m3 27.38 °C 52.57 % 1,016.60 mbar 4.04 m/s 251.88 Deg 6.4 µg/m3 0.42 µg/m3
2022-06-16 14:00 13.41 µg/m3 0.55 µg/m3 71.45 µg/m3 0.16 mg/m3 26.54 °C 61.8 % 1,016.89 mbar 4.91 m/s 218.96 Deg 5.72 µg/m3 0.47 µg/m3
2022-06-16 13:00 14.09 µg/m3 0.61 µg/m3 75.28 µg/m3 0.15 mg/m3 26.58 °C 61.52 % 1,016.99 mbar 4.3 m/s 166.81 Deg 6.15 µg/m3 0.58 µg/m3
2022-06-16 12:00 16.17 µg/m3 0.36 µg/m3 68.52 µg/m3 0.17 mg/m3 26.02 °C 67.43 % 1,017.07 mbar 4.11 m/s 204.91 Deg 7.37 µg/m3 0.52 µg/m3
2022-06-16 11:00 18.5 µg/m3 0.59 µg/m3 66.17 µg/m3 0.17 mg/m3 26.06 °C 66.89 % 1,016.93 mbar 3.7 m/s 242.21 Deg 7.98 µg/m3 0.47 µg/m3
2022-06-16 10:00 20.35 µg/m3 0.32 µg/m3 69.99 µg/m3 0.17 mg/m3 25.97 °C 67.4 % 1,016.70 mbar 2.85 m/s 257.54 Deg 8.02 µg/m3 0.37 µg/m3
2022-06-16 09:00 19.28 µg/m3 0.47 µg/m3 69.93 µg/m3 0.17 mg/m3 25.23 °C 68.93 % 1,016.71 mbar 2.96 m/s 222.34 Deg 8.66 µg/m3 0.63 µg/m3
2022-06-16 08:00 24.46 µg/m3 0.4 µg/m3 61.56 µg/m3 0.21 mg/m3 24.33 °C 76.56 % 1,016.64 mbar 2.87 m/s 204.32 Deg 11.7 µg/m3 0.89 µg/m3
2022-06-16 07:00 45.04 µg/m3 0.7 µg/m3 35.08 µg/m3 0.27 mg/m3 23.05 °C 86.88 % 1,016.34 mbar 1.88 m/s 243.38 Deg 22.84 µg/m3 2.31 µg/m3
2022-06-16 06:00 67.57 µg/m3 1.49 µg/m3 7.74 µg/m3 0.32 mg/m3 21.84 °C 76.9 % 1,016.11 mbar 1.09 m/s 220.82 Deg 64.23 µg/m3 1.57 µg/m3
2022-06-16 05:00 50.54 µg/m3 0.95 µg/m3 15.49 µg/m3 0.22 mg/m3 20.57 °C 73.56 % 1,015.88 mbar 1.13 m/s 234.77 Deg 31.38 µg/m3 0.73 µg/m3
2022-06-16 04:00 35.67 µg/m3 0.7 µg/m3 27.91 µg/m3 0.18 mg/m3 20.39 °C 76.18 % 1,015.86 mbar 0.98 m/s 234.48 Deg 13.35 µg/m3 0.63 µg/m3
2022-06-16 03:00 40.75 µg/m3 0.59 µg/m3 33.16 µg/m3 0.12 mg/m3 21.07 °C 72.58 % 1,015.94 mbar 0.8 m/s 236.43 Deg 11.18 µg/m3 1.1 µg/m3
2022-06-16 02:00 23 µg/m3 0.27 µg/m3 35.76 µg/m3 0.23 mg/m3 21.43 °C 72.39 % 1,016.03 mbar 0.48 m/s 224.94 Deg 4.16 µg/m3 0.47 µg/m3
2022-06-16 01:00 35.92 µg/m3 0.63 µg/m3 29.16 µg/m3 0.26 mg/m3 22.06 °C 73.85 % 1,016.37 mbar 0.23 m/s 229.55 Deg 7.58 µg/m3 1.31 µg/m3
2022-06-16 00:00 31.37 µg/m3 0.85 µg/m3 36.55 µg/m3 0.29 mg/m3 22.38 °C 71.75 % 1,017.07 mbar 0.71 m/s 187.48 Deg 6.29 µg/m3 1.36 µg/m3
2022-06-15 23:00 45.66 µg/m3 0.84 µg/m3 26.68 µg/m3 0.32 mg/m3 22.72 °C 70.07 % 1,017.19 mbar 0.47 m/s 214.72 Deg 9.08 µg/m3 2.36 µg/m3
2022-06-15 22:00 53.25 µg/m3 0.84 µg/m3 24.35 µg/m3 0.34 mg/m3 23.63 °C 65.81 % 1,017.22 mbar 0.25 m/s 165.71 Deg 18.1 µg/m3 1.1 µg/m3
2022-06-15 21:00 46.68 µg/m3 0.77 µg/m3 45.56 µg/m3 0.27 mg/m3 24.29 °C 63.04 % 1,016.93 mbar 0.52 m/s 171.52 Deg 10.22 µg/m3 1.05 µg/m3
2022-06-15 20:00 37.48 µg/m3 1.07 µg/m3 61.01 µg/m3 0.23 mg/m3 24.71 °C 59.5 % 1,016.53 mbar 1.03 m/s 157.08 Deg 7.4 µg/m3 0.89 µg/m3
2022-06-15 19:00 20.65 µg/m3 1.57 µg/m3 85.52 µg/m3 0.2 mg/m3 26.49 °C 56.4 % 1,016.37 mbar 1.76 m/s 245.38 Deg 3.7 µg/m3 1.36 µg/m3
2022-06-15 18:00 18.44 µg/m3 0.73 µg/m3 89.85 µg/m3 0.17 mg/m3 27.2 °C 45.34 % 1,016.42 mbar 2.63 m/s 199.98 Deg 4.58 µg/m3 0.63 µg/m3
2022-06-15 17:00 15.21 µg/m3 0.66 µg/m3 88.48 µg/m3 0.16 mg/m3 27.39 °C 40.62 % 1,016.52 mbar 3.06 m/s 275.11 Deg 4 µg/m3 0.73 µg/m3
2022-06-15 16:00 27.12 µg/m3 1.14 µg/m3 78.59 µg/m3 0.19 mg/m3 28.02 °C 46.13 % 1,016.64 mbar 2.2 m/s 148.71 Deg 9.32 µg/m3 0.73 µg/m3
2022-06-15 15:00 31.5 µg/m3 1.08 µg/m3 70.68 µg/m3 0.2 mg/m3 27.75 °C 42.01 % 1,016.89 mbar 2.99E+36 m/s 22 Deg 15.46 µg/m3 0.79 µg/m3
2022-06-15 14:00 33.78 µg/m3 1.28 µg/m3 67.59 µg/m3 0.2 mg/m3 26.33 °C 60.17 % 1,017.25 mbar 2.05 m/s 167.65 Deg 11.46 µg/m3 0.52 µg/m3
2022-06-15 13:00 22.8 µg/m3 1.02 µg/m3 79.06 µg/m3 0.21 mg/m3 25.69 °C 61.09 % 1,017.42 mbar 2.68 m/s 20 Deg 7.1 µg/m3 0.68 µg/m3
2022-06-15 12:00 33.88 µg/m3 1.23 µg/m3 61.54 µg/m3 0.22 mg/m3 26.01 °C 59.06 % 1,017.45 mbar 2.55 m/s 151.8 Deg 16.15 µg/m3 0.68 µg/m3
2022-06-15 11:00 40.82 µg/m3 1.19 µg/m3 57.36 µg/m3 0.22 mg/m3 26.11 °C 60.33 % 1,017.47 mbar 2.61 m/s 110.04 Deg 16.49 µg/m3 0.84 µg/m3
2022-06-15 10:00 35.82 µg/m3 1.01 µg/m3 59.59 µg/m3 0.22 mg/m3 25.44 °C 69.38 % 1,017.09 mbar 2.59 m/s 104.49 Deg 12.65 µg/m3 1 µg/m3
2022-06-15 09:00 41.41 µg/m3 0.92 µg/m3 49.36 µg/m3 0.25 mg/m3 25.01 °C 74.51 % 1,016.65 mbar 1.91 m/s 42.24 Deg 17.19 µg/m3 1 µg/m3
2022-06-15 08:00 32.39 µg/m3 0.98 µg/m3 54.99 µg/m3 0.26 mg/m3 24.97 °C 73.9 % 1,016.49 mbar 1.14 m/s 109.61 Deg 12.52 µg/m3 1.1 µg/m3
2022-06-15 07:00 61.53 µg/m3 1.39 µg/m3 27.71 µg/m3 0.33 mg/m3 23.96 °C 71.17 % 1,016.29 mbar 0.53 m/s 150.01 Deg 40.28 µg/m3 2.83 µg/m3
2022-06-15 06:00 76.2 µg/m3 1.9 µg/m3 5.36 µg/m3 0.41 mg/m3 21.64 °C 66.62 % 1,015.91 mbar 0.64 m/s 228.75 Deg 89.59 µg/m3 2.2 µg/m3
2022-06-15 05:00 63.14 µg/m3 0.94 µg/m3 8.58 µg/m3 0.26 mg/m3 20.69 °C 70.36 % 1,015.58 mbar 0.88 m/s 241.1 Deg 48.83 µg/m3 0.89 µg/m3
2022-06-15 04:00 36.5 µg/m3 0.3 µg/m3 39.96 µg/m3 0.19 mg/m3 20.31 °C 73.64 % 1,015.33 mbar 0.93 m/s 244.07 Deg 12.93 µg/m3 0.42 µg/m3
2022-06-15 03:00 37.08 µg/m3 0.28 µg/m3 45.9 µg/m3 0.11 mg/m3 21.12 °C 67.77 % 1,015.28 mbar 0.69 m/s 230.79 Deg 5.86 µg/m3 0.52 µg/m3
2022-06-15 02:00 13.82 µg/m3 0.4 µg/m3 43.07 µg/m3 0.19 mg/m3 20.97 °C 74.7 % 1,015.43 mbar 0.82 m/s 235.02 Deg 2.25 µg/m3 0.58 µg/m3
2022-06-15 01:00 21.1 µg/m3 0.48 µg/m3 31.38 µg/m3 0.19 mg/m3 21.39 °C 87.07 % 1,015.61 mbar 0.53 m/s 227.15 Deg 2.76 µg/m3 0.58 µg/m3
2022-06-15 00:00 24.41 µg/m3 0.57 µg/m3 36.02 µg/m3 0.22 mg/m3 21.97 °C 85.29 % 1,015.81 mbar 0.63 m/s 234.77 Deg 2.94 µg/m3 1.63 µg/m3
2022-06-14 23:00 55.45 µg/m3 0.97 µg/m3 17.1 µg/m3 0.29 mg/m3 22.92 °C 79.71 % 1,015.92 mbar 0.13 m/s 235.53 Deg 14.25 µg/m3 2.52 µg/m3
2022-06-14 22:00 56.89 µg/m3 1.07 µg/m3 28.39 µg/m3 0.35 mg/m3 23.17 °C 71.67 % 1,015.70 mbar 0.08 m/s 274.54 Deg 12.55 µg/m3 1.73 µg/m3
2022-06-14 21:00 43.48 µg/m3 0.6 µg/m3 60.06 µg/m3 0.27 mg/m3 23.28 °C 69.48 % 1,015.01 mbar 0.61 m/s 161.11 Deg 5.74 µg/m3 1.15 µg/m3
2022-06-14 20:00 25.77 µg/m3 0.5 µg/m3 78.62 µg/m3 0.18 mg/m3 24.33 °C 66.46 % 1,014.55 mbar 1.17 m/s 196.09 Deg 2.12 µg/m3 0.58 µg/m3
2022-06-14 19:00 24.2 µg/m3 0.64 µg/m3 87.56 µg/m3 0.17 mg/m3 25.47 °C 63.38 % 1,014.11 mbar 1.93 m/s 206.29 Deg 3.31 µg/m3 0.84 µg/m3
2022-06-14 18:00 12.85 µg/m3 0.6 µg/m3 95.26 µg/m3 0.16 mg/m3 25.35 °C 73.71 % 1,013.77 mbar 1.71 m/s 181.64 Deg 2.66 µg/m3 1 µg/m3
2022-06-14 17:00 12.84 µg/m3 0.44 µg/m3 93.16 µg/m3 0.17 mg/m3 24.95 °C 78.99 % 1,013.66 mbar 2.41 m/s 42.59 Deg 4.71 µg/m3 0.52 µg/m3
2022-06-14 16:00 9.56 µg/m3 0.48 µg/m3 97.32 µg/m3 0.17 mg/m3 24.75 °C 78.39 % 1,013.72 mbar 3.6 m/s 27.66 Deg 2.46 µg/m3 0.84 µg/m3
2022-06-14 15:00 9.32 µg/m3 0.7 µg/m3 102.43 µg/m3 0.2 mg/m3 24.64 °C 77.2 % 1,013.94 mbar 3.76 m/s 55.29 Deg 2.83 µg/m3 1.42 µg/m3
2022-06-14 14:00 12.72 µg/m3 0.71 µg/m3 96.93 µg/m3 0.21 mg/m3 24.32 °C 80.07 % 1,014.25 mbar 3.25 m/s 44.46 Deg 3.25 µg/m3 0.73 µg/m3
2022-06-14 13:00 9.7 µg/m3 0.24 µg/m3 98.67 µg/m3 0.18 mg/m3 23.63 °C 84.04 % 1,014.41 mbar 3.44 m/s 53.26 Deg 3.16 µg/m3 0.58 µg/m3
2022-06-14 12:00 14.67 µg/m3 0.31 µg/m3 89.11 µg/m3 0.19 mg/m3 23.5 °C 84.11 % 1,014.40 mbar 3.02 m/s 60.9 Deg 5.72 µg/m3 0.52 µg/m3
2022-06-14 11:00 18.27 µg/m3 0.4 µg/m3 84.75 µg/m3 0.17 mg/m3 23.38 °C 84.73 % 1,014.43 mbar 3.08 m/s 60.02 Deg 6.62 µg/m3 0.68 µg/m3
2022-06-14 10:00 18.1 µg/m3 0.31 µg/m3 84.81 µg/m3 0.16 mg/m3 23.38 °C 82.14 % 1,014.32 mbar 2.34 m/s 65.22 Deg 5.28 µg/m3 0.52 µg/m3
2022-06-14 09:00 16.18 µg/m3 0.37 µg/m3 83.24 µg/m3 0.17 mg/m3 22.69 °C 85.5 % 1,014.17 mbar 2.2 m/s 62.59 Deg 5.55 µg/m3 0.73 µg/m3
2022-06-14 08:00 21.09 µg/m3 0.42 µg/m3 74.64 µg/m3 0.2 mg/m3 22.62 °C 85.84 % 1,013.93 mbar 2.4 m/s 48.22 Deg 7.09 µg/m3 0.79 µg/m3
2022-06-14 07:00 26.77 µg/m3 0.82 µg/m3 67.25 µg/m3 0.19 mg/m3 22.51 °C 82.94 % 1,013.63 mbar 2.07 m/s 115.15 Deg 8.07 µg/m3 1.84 µg/m3
2022-06-14 06:00 53.54 µg/m3 1.12 µg/m3 18.49 µg/m3 0.29 mg/m3 20.96 °C 88.83 % 1,013.14 mbar 1.13 m/s 208.8 Deg 37.34 µg/m3 1.99 µg/m3
2022-06-14 05:00 50.75 µg/m3 0.66 µg/m3 22.17 µg/m3 0.21 mg/m3 20.76 °C 87.95 % 1,012.69 mbar 0.54 m/s 211.08 Deg 22.4 µg/m3 1.1 µg/m3
2022-06-14 04:00 29.8 µg/m3 0.19 µg/m3 30.81 µg/m3 0.12 mg/m3 20.3 °C 88.15 % 1,012.63 mbar 0.69 m/s 239.44 Deg 6.6 µg/m3 0.42 µg/m3
2022-06-14 03:00 30.2 µg/m3 -0.07 µg/m3 52.78 µg/m3 0.09 mg/m3 21.04 °C 85.42 % 1,012.59 mbar 0.92 m/s 181.55 Deg 2.35 µg/m3 0.31 µg/m3
2022-06-14 02:00 10.88 µg/m3 0.07 µg/m3 60.42 µg/m3 0.18 mg/m3 21.24 °C 84.54 % 1,012.67 mbar 0.43 m/s 279.34 Deg 0.48 µg/m3 0.26 µg/m3
2022-06-14 01:00 5.7 µg/m3 0.23 µg/m3 80.03 µg/m3 0.17 mg/m3 21.82 °C 82.39 % 1,012.88 mbar 1.26 m/s 203.98 Deg 0.31 µg/m3 0.58 µg/m3
2022-06-14 00:00 7.55 µg/m3 0.19 µg/m3 82.53 µg/m3 0.21 mg/m3 22.22 °C 78.55 % 1,013.04 mbar 2.85 m/s 238.84 Deg 1.07 µg/m3 0.16 µg/m3
2022-06-13 23:00 5.37 µg/m3 0.06 µg/m3 86.58 µg/m3 0.18 mg/m3 22.47 °C 76.33 % 1,013.09 mbar 3.22 m/s 253.85 Deg 0.76 µg/m3 0.58 µg/m3
2022-06-13 22:00 13.02 µg/m3 0.17 µg/m3 79.41 µg/m3 0.2 mg/m3 22.71 °C 72.19 % 1,013.52 mbar 2.34 m/s 189.39 Deg 1.33 µg/m3 0.63 µg/m3
2022-06-13 21:00 19.3 µg/m3 0.39 µg/m3 75.24 µg/m3 0.2 mg/m3 22.86 °C 71.45 % 1,013.39 mbar 2.26 m/s 234.16 Deg 1.81 µg/m3 1.21 µg/m3
2022-06-13 20:00 23.68 µg/m3 0.35 µg/m3 79.14 µg/m3 0.21 mg/m3 23.31 °C 73.44 % 1,013.26 mbar 1.97 m/s 231.34 Deg 2.53 µg/m3 0.68 µg/m3
2022-06-13 19:00 20.2 µg/m3 0.38 µg/m3 88.07 µg/m3 0.18 mg/m3 24.58 °C 70.08 % 1,013.14 mbar 2.6 m/s 231.36 Deg 2.92 µg/m3 0.42 µg/m3
2022-06-13 18:00 15.4 µg/m3 0.32 µg/m3 93.84 µg/m3 0.18 mg/m3 25.53 °C 66.45 % 1,013.17 mbar 2.96 m/s 238.24 Deg 3.05 µg/m3 0.52 µg/m3
2022-06-13 17:00 15.15 µg/m3 0.47 µg/m3 92.84 µg/m3 0.16 mg/m3 26.04 °C 60.59 % 1,013.22 mbar 4.03 m/s 248.07 Deg 4.78 µg/m3 0.58 µg/m3
2022-06-13 16:00 14.41 µg/m3 0.61 µg/m3 91.24 µg/m3 0.16 mg/m3 26.91 °C 47.42 % 992.68 mbar 3.91 m/s 283.55 Deg 4.6 µg/m3 0.31 µg/m3
2022-06-13 15:00 16.67 µg/m3 0.83 µg/m3 89.03 µg/m3 0.18 mg/m3 27.61 °C 43.75 % 1,013.45 mbar 3.6 m/s 237.48 Deg 9.16 µg/m3 0.31 µg/m3
2022-06-13 14:00 16.54 µg/m3 0.81 µg/m3 91.82 µg/m3 0.21 mg/m3 27.48 °C 46.91 % 1,013.71 mbar 3.33 m/s 274.26 Deg 5.49 µg/m3 0.63 µg/m3
2022-06-13 13:00 14.53 µg/m3 0.85 µg/m3 91.5 µg/m3 0.21 mg/m3 26.33 °C 49.43 % 1,013.90 mbar 4.16 m/s 177.37 Deg 5.32 µg/m3 0.84 µg/m3
2022-06-13 12:00 16.47 µg/m3 1.05 µg/m3 87.97 µg/m3 0.22 mg/m3 26.08 °C 48.34 % 1,014.32 mbar 3.79 m/s 264.2 Deg 4.92 µg/m3 0.63 µg/m3
2022-06-13 11:00 14.83 µg/m3 1.05 µg/m3 89.17 µg/m3 0.2 mg/m3 25.49 °C 48.89 % 1,022.94 mbar 3.88 m/s 242.83 Deg 5.73 µg/m3 0.73 µg/m3
2022-06-13 10:00 17.38 µg/m3 1.35 µg/m3 85.18 µg/m3 0.21 mg/m3 25.32 °C 50.75 % 1,014.04 mbar 3.11 m/s 163.39 Deg 6.02 µg/m3 1.05 µg/m3
2022-06-13 09:00 13.48 µg/m3 1.16 µg/m3 83.6 µg/m3 0.19 mg/m3 24.6 °C 55.24 % 1,014.16 mbar 3.14 m/s 320.69 Deg 4.06 µg/m3 0.58 µg/m3
2022-06-13 08:00 21.47 µg/m3 1.73 µg/m3 69.66 µg/m3 0.21 mg/m3 23.63 °C 69.68 % 1,014.03 mbar 2.52 m/s 111.2 Deg 6.32 µg/m3 0 µg/m3
2022-06-13 07:00 32.7 µg/m3 1.68 µg/m3 55.19 µg/m3 0.21 mg/m3 22.85 °C 72.61 % 992.55 mbar 1.7 m/s 121.39 Deg 11.66 µg/m3 0 µg/m3
2022-06-13 06:00 81.03 µg/m3 1.35 µg/m3 17.87 µg/m3 0.27 mg/m3 22.84 °C 67.67 % 1,013.08 mbar 0.65 m/s 175.34 Deg 45.6 µg/m3 6.3 µg/m3
2022-06-13 05:00 25.21 µg/m3 0.63 µg/m3 61 µg/m3 0.18 mg/m3 22.41 °C 67.3 % 1,012.64 mbar 0.98 m/s 162.48 Deg 2.6 µg/m3 15.38 µg/m3
2022-06-13 04:00 16.91 µg/m3 0.69 µg/m3 72.91 µg/m3 0.16 mg/m3 22.08 °C 72.71 % 1,012.36 mbar 1.2 m/s 202.08 Deg 0.74 µg/m3 0 µg/m3
2022-06-13 03:00 28.52 µg/m3 0.1 µg/m3 60.61 µg/m3 0.1 mg/m3 21.37 °C 85.07 % 1,012.51 mbar 0.89 m/s 111.43 Deg 0.66 µg/m3 22.99 µg/m3
2022-06-13 02:00 15.47 µg/m3 0.02 µg/m3 57.62 µg/m3 0.18 mg/m3 21.51 °C 88.05 % 1,012.93 mbar 0.48 m/s 153.56 Deg 1.55 µg/m3 0 µg/m3
2022-06-13 01:00 8.88 µg/m3 0.11 µg/m3 72.03 µg/m3 0.18 mg/m3 21.71 °C 86.17 % 1,013.57 mbar 0.92 m/s 250.85 Deg 0.88 µg/m3 0 µg/m3
2022-06-13 00:00 9.05 µg/m3 0.06 µg/m3 78.06 µg/m3 0.17 mg/m3 22.37 °C 77.12 % 1,014.05 mbar 1.41 m/s 267.89 Deg 0.68 µg/m3 23.46 µg/m3
2022-06-12 23:00 15.88 µg/m3 0.13 µg/m3 71.24 µg/m3 0.2 mg/m3 22.77 °C 69.45 % 1,014.26 mbar 1.34 m/s 219.45 Deg 1.63 µg/m3 0 µg/m3
2022-06-12 22:00 12.42 µg/m3 0.24 µg/m3 80.31 µg/m3 0.19 mg/m3 23.61 °C 68.4 % 1,014.21 mbar 2.41 m/s 160.26 Deg 1.91 µg/m3 1 µg/m3
2022-06-12 21:00 27.44 µg/m3 0.41 µg/m3 69.19 µg/m3 0.2 mg/m3 23.76 °C 66.29 % 1,014.00 mbar 2.2 m/s 224.96 Deg 4.56 µg/m3 0 µg/m3
2022-06-12 20:00 16.47 µg/m3 0.09 µg/m3 77.14 µg/m3 0.18 mg/m3 23.21 °C 73.67 % 1,013.68 mbar 2.55 m/s 236.59 Deg 1.6 µg/m3 10.81 µg/m3
2022-06-12 19:00 12.78 µg/m3 0.43 µg/m3 83.74 µg/m3 0.17 mg/m3 23.91 °C 71.44 % 1,013.62 mbar 3.34 m/s 233.74 Deg 2.02 µg/m3 0.1 µg/m3
2022-06-12 18:00 12.26 µg/m3 0.4 µg/m3 83.52 µg/m3 0.16 mg/m3 24.38 °C 69.47 % 1,013.73 mbar 3.78 m/s 225.95 Deg 2.57 µg/m3 2.62 µg/m3
2022-06-12 17:00 13.42 µg/m3 0.31 µg/m3 83.98 µg/m3 0.17 mg/m3 25.25 °C 65.96 % 1,013.88 mbar 3.34 m/s 230.02 Deg 3.7 µg/m3 28.61 µg/m3
2022-06-12 16:00 13.7 µg/m3 0.22 µg/m3 87.86 µg/m3 0.17 mg/m3 25.78 °C 66.17 % 1,014.22 mbar 3.49 m/s 220.04 Deg 3.82 µg/m3 0 µg/m3
2022-06-12 15:00 9.61 µg/m3 0.12 µg/m3 82.75 µg/m3 0.17 mg/m3 25.13 °C 71.78 % 1,014.52 mbar 3.83 m/s 241.5 Deg 2.96 µg/m3 0 µg/m3
2022-06-12 14:00 8.53 µg/m3 0.54 µg/m3 85.84 µg/m3 0.19 mg/m3 25.96 °C 64.47 % 1,014.62 mbar 4.07 m/s 226.04 Deg 2.71 µg/m3 0 µg/m3
2022-06-12 13:00 8.3 µg/m3 0.57 µg/m3 88.76 µg/m3 0.18 mg/m3 26.48 °C 54.07 % 1,014.99 mbar 3.59 m/s 221.64 Deg 2.7 µg/m3 0.42 µg/m3
2022-06-12 12:00 8.92 µg/m3 0.48 µg/m3 90.27 µg/m3 0.19 mg/m3 26.04 °C 52.53 % 1,015.29 mbar 4.3 m/s 154.29 Deg 3.61 µg/m3 0 µg/m3
2022-06-12 11:00 11.02 µg/m3 0.54 µg/m3 86.57 µg/m3 0.19 mg/m3 25.61 °C 50.35 % 1,015.35 mbar 3.91 m/s 133.88 Deg 6.26 µg/m3 6.88 µg/m3
2022-06-12 10:00 11.75 µg/m3 0.7 µg/m3 83.72 µg/m3 0.2 mg/m3 25.14 °C 54.77 % 1,015.30 mbar 3.4 m/s 178.18 Deg 3.45 µg/m3 5.88 µg/m3
2022-06-12 09:00 14.84 µg/m3 0.75 µg/m3 76.76 µg/m3 0.2 mg/m3 24.97 °C 59 % 1,015.29 mbar 2.46 m/s 275.73 Deg 4.05 µg/m3 2.52 µg/m3
2022-06-12 08:00 12.4 µg/m3 0.93 µg/m3 76.43 µg/m3 0.21 mg/m3 24.12 °C 66.1 % 1,015.19 mbar 2.44 m/s 242.16 Deg 2.94 µg/m3 2.73 µg/m3
2022-06-12 07:00 25.17 µg/m3 0.6 µg/m3 41.66 µg/m3 0.26 mg/m3 22.13 °C 83.8 % 1,014.81 mbar 0.97 m/s 222.55 Deg 9.14 µg/m3 6.25 µg/m3
2022-06-12 06:00 26.08 µg/m3 0.54 µg/m3 10.11 µg/m3 0.23 mg/m3 20.15 °C 93.3 % 1,014.56 mbar 0.7 m/s 237.93 Deg 15.87 µg/m3 0 µg/m3
2022-06-12 05:00 31.92 µg/m3 0.32 µg/m3 17.97 µg/m3 0.2 mg/m3 21.01 °C 91.54 % 1,014.09 mbar 0.76 m/s 131.79 Deg 12.14 µg/m3 0 µg/m3
2022-06-12 04:00 19.88 µg/m3 0.11 µg/m3 55.92 µg/m3 0.16 mg/m3 21.54 °C 91.04 % 1,013.84 mbar 1.4 m/s 54.52 Deg 0.77 µg/m3 0.42 µg/m3
2022-06-12 03:00 30.77 µg/m3 0.03 µg/m3 60.66 µg/m3 0.1 mg/m3 21.53 °C 84.95 % 1,013.97 mbar 1.24 m/s 131.79 Deg 1.28 µg/m3 0 µg/m3
2022-06-12 02:00 13.93 µg/m3 0.18 µg/m3 62.22 µg/m3 0.18 mg/m3 21.44 °C 85.83 % 1,014.04 mbar 1.06 m/s 119.07 Deg 1.4 µg/m3 1.21 µg/m3
2022-06-12 01:00 7.22 µg/m3 0.02 µg/m3 77.71 µg/m3 0.18 mg/m3 21.79 °C 86.67 % 1,014.26 mbar 1.6 m/s 61.97 Deg 0.85 µg/m3 0 µg/m3
2022-06-12 00:00 25.73 µg/m3 0.3 µg/m3 59.43 µg/m3 0.2 mg/m3 22.38 °C 79.99 % 1,014.30 mbar 1.3 m/s 198.03 Deg 4.2 µg/m3 1.15 µg/m3
2022-06-11 23:00 32.75 µg/m3 0.23 µg/m3 46.34 µg/m3 0.22 mg/m3 21.89 °C 82.57 % 1,014.29 mbar 0.8 m/s 237.57 Deg 7.17 µg/m3 0.37 µg/m3
2022-06-11 22:00 15.16 µg/m3 -0.02 µg/m3 70.05 µg/m3 0.16 mg/m3 22.02 °C 85.08 % 1,014.32 mbar 2.71 m/s 238.77 Deg 2.29 µg/m3 3.46 µg/m3
2022-06-11 21:00 8.13 µg/m3 -0.16 µg/m3 78.81 µg/m3 0.14 mg/m3 21.85 °C 85.73 % 1,014.11 mbar 3.31 m/s 266.93 Deg 1.09 µg/m3 3.25 µg/m3
2022-06-11 20:00 9.69 µg/m3 0.04 µg/m3 80.39 µg/m3 0.15 mg/m3 21.93 °C 85.48 % 1,013.71 mbar 4.45 m/s 257.92 Deg 1.39 µg/m3 2.41 µg/m3
2022-06-11 19:00 8.39 µg/m3 0.18 µg/m3 83.85 µg/m3 0.15 mg/m3 22.72 °C 81.76 % 1,013.41 mbar 4.85 m/s 268.4 Deg 1.61 µg/m3 7.35 µg/m3
2022-06-11 18:00 11.35 µg/m3 0.2 µg/m3 82.52 µg/m3 0.16 mg/m3 23.89 °C 75.78 % 1,013.11 mbar 4.32 m/s 239.02 Deg 3 µg/m3 0 µg/m3
2022-06-11 17:00 10.88 µg/m3 0.38 µg/m3 79.31 µg/m3 0.15 mg/m3 25.01 °C 70.26 % 1,012.96 mbar 4.05 m/s 199.56 Deg 3.33 µg/m3 0 µg/m3
2022-06-11 16:00 9.02 µg/m3 0.45 µg/m3 79.8 µg/m3 0.15 mg/m3 25.54 °C 69.19 % 1,013.05 mbar 4.04 m/s 280.16 Deg 2.92 µg/m3 0 µg/m3
2022-06-11 15:00 8.24 µg/m3 0.33 µg/m3 83.7 µg/m3 0.14 mg/m3 25.6 °C 66.31 % 1,013.05 mbar 3.96 m/s 255.28 Deg 2.24 µg/m3 4.36 µg/m3
2022-06-11 14:00 7.08 µg/m3 0.1 µg/m3 82.06 µg/m3 0.15 mg/m3 25.21 °C 72.27 % 1,013.21 mbar 4.85 m/s 245.84 Deg 2.06 µg/m3 3.36 µg/m3
2022-06-11 13:00 10.35 µg/m3 0.37 µg/m3 80.32 µg/m3 0.15 mg/m3 25.32 °C 70.52 % 1,013.25 mbar 4.31 m/s 267.45 Deg 3.1 µg/m3 0 µg/m3
2022-06-11 12:00 13.44 µg/m3 0.29 µg/m3 79.75 µg/m3 0.14 mg/m3 25.23 °C 68.78 % 1,013.41 mbar 3.88 m/s 210.99 Deg 5.28 µg/m3 0 µg/m3
2022-06-11 11:00 9.84 µg/m3 0.34 µg/m3 83.44 µg/m3 0.14 mg/m3 24.86 °C 62.17 % 1,013.38 mbar 4.54 m/s 295.69 Deg 3.39 µg/m3 0 µg/m3
2022-06-11 10:00 7.68 µg/m3 0.41 µg/m3 79.46 µg/m3 0.14 mg/m3 24.41 °C 64.69 % 1,013.10 mbar 5.34 m/s 312.86 Deg 2.29 µg/m3 0 µg/m3
2022-06-11 09:00 11.46 µg/m3 0.08 µg/m3 78.58 µg/m3 0.15 mg/m3 23.94 °C 68.2 % 1,012.73 mbar 4.8 m/s 246.84 Deg 4.4 µg/m3 0 µg/m3
2022-06-11 08:00 10.34 µg/m3 0.09 µg/m3 76.43 µg/m3 0.15 mg/m3 23.67 °C 67.64 % 1,012.36 mbar 4.21 m/s 278.82 Deg 2.66 µg/m3 6.72 µg/m3
2022-06-11 07:00 10.09 µg/m3 0.03 µg/m3 73.99 µg/m3 0.14 mg/m3 22.81 °C 72.91 % 1,011.97 mbar 3.2 m/s 332.7 Deg 2.19 µg/m3 3.94 µg/m3
2022-06-11 06:00 12.71 µg/m3 -0.02 µg/m3 70.41 µg/m3 0.14 mg/m3 21.88 °C 78.14 % 1,011.53 mbar 2.71 m/s 315.72 Deg 1.74 µg/m3 0 µg/m3
2022-06-11 05:00 9.7 µg/m3 0.07 µg/m3 75.24 µg/m3 0.11 mg/m3 21.67 °C 79.57 % 1,010.97 mbar 3.5 m/s 334.08 Deg 0.46 µg/m3 0 µg/m3
2022-06-11 04:00 12.58 µg/m3 0.01 µg/m3 79.7 µg/m3 0.12 mg/m3 21.44 °C 83.07 % 1,010.42 mbar 4.17 m/s 348.1 Deg 0.18 µg/m3 0 µg/m3
2022-06-11 03:00 24.35 µg/m3 0.24 µg/m3 80.17 µg/m3 0.09 mg/m3 21.43 °C 84.15 % 1,010.30 mbar 4.15 m/s 328.88 Deg 0.53 µg/m3 6.04 µg/m3
2022-06-11 02:00 4.02 µg/m3 0 µg/m3 81.73 µg/m3 0.13 mg/m3 21.56 °C 82.61 % 1,010.55 mbar 3.42 m/s 330.91 Deg 0.38 µg/m3 0 µg/m3
2022-06-11 01:00 5.82 µg/m3 -0.1 µg/m3 80.59 µg/m3 0.13 mg/m3 21.59 °C 83.3 % 1,010.78 mbar 4.01 m/s 350.75 Deg 0.69 µg/m3 0 µg/m3
2022-06-11 00:00 5.23 µg/m3 0.15 µg/m3 78.66 µg/m3 0.14 mg/m3 21.95 °C 79.15 % 1,010.94 mbar 3.76 m/s 318.68 Deg 0.7 µg/m3 0.26 µg/m3
2022-06-10 23:00 7.32 µg/m3 0.27 µg/m3 75.1 µg/m3 0.14 mg/m3 22.03 °C 78.38 % 1,010.85 mbar 3.41 m/s 297.03 Deg 0.88 µg/m3 0 µg/m3
2022-06-10 22:00 6.81 µg/m3 0.03 µg/m3 73.04 µg/m3 0.14 mg/m3 21.98 °C 78.87 % 1,010.71 mbar 4.17 m/s 281.96 Deg 1.03 µg/m3 3.94 µg/m3
2022-06-10 21:00 4.99 µg/m3 0.1 µg/m3 73.88 µg/m3 0.13 mg/m3 22.19 °C 77.53 % 1,009.95 mbar 4.73 m/s 292.41 Deg 1.33 µg/m3 5.25 µg/m3
2022-06-10 20:00 6.59 µg/m3 0.11 µg/m3 77.64 µg/m3 0.14 mg/m3 22.63 °C 75.02 % 1,008.92 mbar 4.37 m/s 299.53 Deg 1.38 µg/m3 3.41 µg/m3
2022-06-10 19:00 6.1 µg/m3 0.06 µg/m3 77.41 µg/m3 0.13 mg/m3 23.1 °C 72.81 % 1,008.51 mbar 5.07 m/s 22 Deg 1.68 µg/m3 0 µg/m3
2022-06-10 18:00 7.63 µg/m3 0.07 µg/m3 73.69 µg/m3 0.13 mg/m3 23.56 °C 71.8 % 1,007.98 mbar 4.76 m/s 228.85 Deg 2.36 µg/m3 0.79 µg/m3
2022-06-10 17:00 8.62 µg/m3 0.1 µg/m3 74.78 µg/m3 0.14 mg/m3 23.83 °C 70.9 % 1,007.87 mbar 5.52 m/s 223.51 Deg 3.28 µg/m3 9.97 µg/m3
2022-06-10 16:00 7.42 µg/m3 0.14 µg/m3 76.48 µg/m3 0.14 mg/m3 23.72 °C 71.57 % 1,007.95 mbar 6.14 m/s 211.16 Deg 2.7 µg/m3 0 µg/m3
2022-06-10 15:00 7.94 µg/m3 0.06 µg/m3 72.59 µg/m3 0.14 mg/m3 23.32 °C 74.48 % 1,008.09 mbar 6.74 m/s 241.97 Deg 3.36 µg/m3 2.31 µg/m3
2022-06-10 14:00 7.4 µg/m3 0.03 µg/m3 75.55 µg/m3 0.15 mg/m3 23.11 °C 77.42 % 1,008.52 mbar 6.25 m/s 245.93 Deg 3.15 µg/m3 0.16 µg/m3
2022-06-10 13:00 7.77 µg/m3 0.19 µg/m3 74.9 µg/m3 0.14 mg/m3 23.03 °C 75.33 % 1,008.78 mbar 6.95 m/s 239.36 Deg 3.12 µg/m3 1.57 µg/m3
2022-06-10 12:00 9.25 µg/m3 0.24 µg/m3 69.44 µg/m3 0.14 mg/m3 23.23 °C 73 % 1,008.73 mbar 6.11 m/s 286.42 Deg 4.2 µg/m3 6.56 µg/m3
2022-06-10 11:00 9.96 µg/m3 0.05 µg/m3 67.48 µg/m3 0.14 mg/m3 23.1 °C 73.37 % 1,008.44 mbar 6.2 m/s 277.22 Deg 4.71 µg/m3 0 µg/m3
2022-06-10 10:00 10.71 µg/m3 0.15 µg/m3 63.88 µg/m3 0.13 mg/m3 22.65 °C 74.42 % 1,008.31 mbar 5.82 m/s 257.75 Deg 8.89 µg/m3 0.37 µg/m3
2022-06-10 09:00 10.07 µg/m3 0.09 µg/m3 61.02 µg/m3 0.13 mg/m3 22.69 °C 74.25 % 1,008.06 mbar 5.14 m/s 267.52 Deg 4.44 µg/m3 0.1 µg/m3
2022-06-10 08:00 10.28 µg/m3 -0 µg/m3 58.89 µg/m3 0.14 mg/m3 21.96 °C 78.57 % 1,007.98 mbar 4.66 m/s 263.58 Deg 4.29 µg/m3 2.41 µg/m3
2022-06-10 07:00 12.52 µg/m3 0.29 µg/m3 55.82 µg/m3 0.18 mg/m3 21.46 °C 81.65 % 1,007.84 mbar 4.43 m/s 271.28 Deg 5.13 µg/m3 0.73 µg/m3
2022-06-10 06:00 12.04 µg/m3 -0.11 µg/m3 57.15 µg/m3 0.14 mg/m3 20.91 °C 82.86 % 1,007.66 mbar 4.73 m/s 281.64 Deg 4.53 µg/m3 2.2 µg/m3
2022-06-10 05:00 7.56 µg/m3 -0.23 µg/m3 61.65 µg/m3 0.11 mg/m3 20.84 °C 81.55 % 1,007.50 mbar 4.78 m/s 297.34 Deg 1.02 µg/m3 4.41 µg/m3
2022-06-10 04:00 9.08 µg/m3 -0.31 µg/m3 62 µg/m3 0.11 mg/m3 20.85 °C 80.59 % 1,007.60 mbar 4.55 m/s 295.02 Deg 0.44 µg/m3 0 µg/m3
2022-06-10 03:00 20.28 µg/m3 0.1 µg/m3 63.89 µg/m3 0.06 mg/m3 20.96 °C 79.49 % 1,007.66 mbar 5 m/s 275.61 Deg 0.41 µg/m3 0 µg/m3
2022-06-10 02:00 2.72 µg/m3 0.02 µg/m3 63.98 µg/m3 0.08 mg/m3 21.26 °C 77.9 % 1,007.92 mbar 5.49 m/s 284.82 Deg 0.08 µg/m3 0.63 µg/m3
2022-06-10 01:00 2.23 µg/m3 -0.05 µg/m3 63.42 µg/m3 0.08 mg/m3 21.3 °C 79.48 % 1,008.22 mbar 5.34 m/s 284 Deg 0.27 µg/m3 8.92 µg/m3
2022-06-10 00:00 3.1 µg/m3 -0.22 µg/m3 66.68 µg/m3 0.1 mg/m3 21.42 °C 79.83 % 1,008.46 mbar 5.25 m/s 263.91 Deg 0.66 µg/m3 0.63 µg/m3
2022-06-09 23:00 3.53 µg/m3 -0.09 µg/m3 68.55 µg/m3 0.1 mg/m3 21.76 °C 77.88 % 1,008.80 mbar 5.27 m/s 270.47 Deg 0.77 µg/m3 0 µg/m3
2022-06-09 22:00 4 µg/m3 -0.11 µg/m3 67.1 µg/m3 0.11 mg/m3 21.91 °C 83.73 % 1,009.01 mbar 4.56 m/s 255.96 Deg 0.96 µg/m3 0.58 µg/m3
2022-06-09 21:00 4.83 µg/m3 0 µg/m3 72.21 µg/m3 0.11 mg/m3 22 °C 87.59 % 1,008.72 mbar 4.84 m/s 274.97 Deg 0.77 µg/m3 0 µg/m3
2022-06-09 20:00 5.5 µg/m3 -0.19 µg/m3 74.56 µg/m3 0.12 mg/m3 22.21 °C 86.72 % 1,008.31 mbar 4.57 m/s 272.66 Deg 1.02 µg/m3 0 µg/m3
2022-06-09 19:00 6.22 µg/m3 0.09 µg/m3 71.18 µg/m3 0.11 mg/m3 22.97 °C 82.86 % 1,008.25 mbar 4.81 m/s 281.51 Deg 1.85 µg/m3 0 µg/m3
2022-06-09 15:00 7 µg/m3 -0.06 µg/m3 67.36 µg/m3 0.11 mg/m3 24 °C 78.06 % 1,008.89 mbar 6.13 m/s 276.68 Deg 2.35 µg/m3 0 µg/m3
2022-06-09 14:00 10.07 µg/m3 0.16 µg/m3 64.58 µg/m3 0.11 mg/m3 24.43 °C 75.16 % 1,009.29 mbar 29.22 m/s 241.21 Deg 4.32 µg/m3 0 µg/m3
2022-06-09 13:00 10.7 µg/m3 0.23 µg/m3 62.86 µg/m3 0.09 mg/m3 24.8 °C 69.12 % 989.62 mbar 5.54 m/s 228.58 Deg 4.49 µg/m3 2.94 µg/m3
2022-06-09 12:00 16.31 µg/m3 0.3 µg/m3 42.12 µg/m3 0.13 mg/m3 25.1 °C 68.4 % 1,009.29 mbar 5.22 m/s 219.52 Deg 6.28 µg/m3 0.07 µg/m3
2022-06-09 11:00 10.84 µg/m3 0.16 µg/m3 65.22 µg/m3 0.21 mg/m3 24.69 °C 73.76 % 1,009.75 mbar 5.98 m/s 196.4 Deg 4.5 µg/m3 0 µg/m3
2022-06-09 10:00 15.01 µg/m3 0.06 µg/m3 57.58 µg/m3 0.29 mg/m3 24.54 °C 75.3 % 1,009.76 mbar 5.24 m/s 225.96 Deg 7.3 µg/m3 0.94 µg/m3
2022-06-09 09:00 16.58 µg/m3 0.21 µg/m3 59.24 µg/m3 0.32 mg/m3 25.42 °C 69.94 % 1,009.44 mbar 3.59 m/s 200.72 Deg 5.85 µg/m3 0 µg/m3
2022-06-09 08:00 21.48 µg/m3 0.45 µg/m3 53.02 µg/m3 0.32 mg/m3 25.35 °C 62.58 % 990.71 mbar 2.51 m/s 233.16 Deg 6.24 µg/m3 0 µg/m3
2022-06-09 07:00 25.03 µg/m3 0.32 µg/m3 47.41 µg/m3 0.31 mg/m3 25.49 °C 70.01 % 1,008.93 mbar 1.84 m/s 277.43 Deg 8.05 µg/m3 0 µg/m3
2022-06-09 06:00 22.36 µg/m3 0.21 µg/m3 46.42 µg/m3 0.3 mg/m3 22.73 °C 77.73 % 1,008.71 mbar 2.28 m/s 240.47 Deg 6.05 µg/m3 0 µg/m3
2022-06-09 05:00 16.2 µg/m3 0.05 µg/m3 50.15 µg/m3 0.26 mg/m3 22.25 °C 83.05 % 1,008.69 mbar 3.15 m/s 239.89 Deg 2.89 µg/m3 0.42 µg/m3
2022-06-09 04:00 16.38 µg/m3 -0.04 µg/m3 56.89 µg/m3 0.24 mg/m3 22.22 °C 85.81 % 1,008.83 mbar 4.04 m/s 229.6 Deg 0.67 µg/m3 0 µg/m3
2022-06-09 03:00 23.19 µg/m3 -0.23 µg/m3 66.91 µg/m3 0.18 mg/m3 22.18 °C 89.57 % 1,008.94 mbar 4.72 m/s 258.92 Deg 0.52 µg/m3 0 µg/m3
2022-06-09 02:00 4.1 µg/m3 -0.13 µg/m3 64.67 µg/m3 0.31 mg/m3 22.04 °C 90.62 % 1,009.18 mbar 4.36 m/s 256.09 Deg 0.23 µg/m3 4.62 µg/m3
2022-06-09 01:00 4.88 µg/m3 -0.19 µg/m3 66.41 µg/m3 0.33 mg/m3 21.79 °C 91.36 % 1,009.56 mbar 3.6 m/s 250.85 Deg 0.57 µg/m3 0.84 µg/m3
2022-06-09 00:00 6.84 µg/m3 0 µg/m3 63.09 µg/m3 0.33 mg/m3 21.75 °C 92.31 % 1,010.07 mbar 2.8 m/s 247.7 Deg 0.75 µg/m3 0 µg/m3
2022-06-08 23:00 6.97 µg/m3 0.01 µg/m3 68.77 µg/m3 0.32 mg/m3 22.29 °C 90.34 % 1,010.44 mbar 3.67 m/s 250.72 Deg 0.63 µg/m3 0.73 µg/m3
2022-06-08 22:00 5.57 µg/m3 -0.04 µg/m3 69.74 µg/m3 0.3 mg/m3 22.44 °C 88.09 % 1,010.64 mbar 4.54 m/s 246.32 Deg 0.8 µg/m3 0 µg/m3
2022-06-08 21:00 7.79 µg/m3 -0.06 µg/m3 67.45 µg/m3 0.31 mg/m3 22.61 °C 88.51 % 1,010.36 mbar 4.99 m/s 254.78 Deg 0.95 µg/m3 5.3 µg/m3
2022-06-08 20:00 9.45 µg/m3 0.02 µg/m3 65.92 µg/m3 0.29 mg/m3 22.76 °C 90.61 % 1,010.02 mbar 4.69 m/s 252.89 Deg 1.31 µg/m3 0.1 µg/m3
2022-06-08 19:00 10.19 µg/m3 -0.06 µg/m3 75.4 µg/m3 0.28 mg/m3 23.46 °C 89.13 % 1,010.05 mbar 5.41 m/s 230.67 Deg 1.69 µg/m3 0.1 µg/m3
2022-06-08 18:00 9.57 µg/m3 0.02 µg/m3 69.23 µg/m3 0.28 mg/m3 23.92 °C 84.55 % 1,009.85 mbar 5.54 m/s 234.55 Deg 2.46 µg/m3 0 µg/m3
2022-06-08 17:00 12.28 µg/m3 -0.02 µg/m3 66.23 µg/m3 0.3 mg/m3 25.42 °C 79.7 % 1,009.70 mbar 5.03 m/s 200.25 Deg 4.63 µg/m3 0 µg/m3
2022-06-08 16:00 13.64 µg/m3 0.18 µg/m3 64.38 µg/m3 0.28 mg/m3 25.98 °C 74.12 % 1,010.21 mbar 4.85 m/s 183.16 Deg 5.18 µg/m3 4.46 µg/m3
2022-06-08 15:00 14.98 µg/m3 0.22 µg/m3 69.05 µg/m3 0.25 mg/m3 26.49 °C 70.28 % 1,010.44 mbar 4.89 m/s 203.78 Deg 5.14 µg/m3 0.73 µg/m3
2022-06-08 14:00 15.33 µg/m3 0.22 µg/m3 72.13 µg/m3 0.21 mg/m3 26.44 °C 71.36 % 1,010.51 mbar 4.86 m/s 223.46 Deg 5.65 µg/m3 0.1 µg/m3
2022-06-08 13:00 30.61 µg/m3 0 µg/m3 60.38 µg/m3 0.24 mg/m3 27.26 °C 58.12 % 1,010.74 mbar 3.83 m/s 192.31 Deg 12.23 µg/m3 5.51 µg/m3
2022-06-08 12:00 12.96 µg/m3 0.72 µg/m3 74.88 µg/m3 0.28 mg/m3 26.32 °C 65.55 % 1,011.15 mbar 4.27 m/s 276.54 Deg 3.93 µg/m3 0 µg/m3
2022-06-08 11:00 20.26 µg/m3 0.37 µg/m3 68.24 µg/m3 0.32 mg/m3 26.36 °C 67.09 % 1,011.16 mbar 3.61 m/s 179.06 Deg 6.86 µg/m3 0.68 µg/m3
2022-06-08 10:00 22.71 µg/m3 0.55 µg/m3 55.27 µg/m3 0.23 mg/m3 25.42 °C 67.84 % 1,011.15 mbar 3.86 m/s 187.48 Deg 8.32 µg/m3 0 µg/m3
2022-06-08 09:00 20.47 µg/m3 0.65 µg/m3 40.17 µg/m3 0.18 mg/m3 26.91 °C 58.34 % 1,010.80 mbar 1.97 m/s 211.25 Deg 5.55 µg/m3 0 µg/m3
2022-06-08 08:00 27.7 µg/m3 0.83 µg/m3 42.71 µg/m3 0.29 mg/m3 25.44 °C 62.49 % 1,010.43 mbar 1.59 m/s 125.43 Deg 9.45 µg/m3 0.07 µg/m3
2022-06-08 07:00 29.53 µg/m3 0.52 µg/m3 47.95 µg/m3 0.36 mg/m3 23.85 °C 77.6 % 1,009.83 mbar 1.66 m/s 127.91 Deg 10.29 µg/m3 0 µg/m3
2022-06-08 06:00 18.74 µg/m3 0.14 µg/m3 53.26 µg/m3 0.34 mg/m3 22.87 °C 86.86 % 1,009.23 mbar 3.08 m/s 41.23 Deg 4.97 µg/m3 0 µg/m3
2022-06-08 05:00 15.15 µg/m3 0.13 µg/m3 57.97 µg/m3 0.31 mg/m3 22.75 °C 88.9 % 1,009.49 mbar 2.16 m/s 36.73 Deg 2.1 µg/m3 0 µg/m3
2022-06-08 04:00 13.56 µg/m3 0.14 µg/m3 67.86 µg/m3 0.3 mg/m3 23.56 °C 78.48 % 1,009.25 mbar 3.16 m/s 39.07 Deg 0.64 µg/m3 0.63 µg/m3
2022-06-08 03:00 21.91 µg/m3 0.09 µg/m3 69.88 µg/m3 0.2 mg/m3 23.48 °C 77.24 % 1,009.35 mbar 2.15 m/s 25.02 Deg 0.58 µg/m3 3.25 µg/m3
2022-06-08 02:00 3.83 µg/m3 0.24 µg/m3 69.24 µg/m3 0.29 mg/m3 23.51 °C 81.63 % 1,009.51 mbar 2.82 m/s 259.48 Deg 0.78 µg/m3 0 µg/m3
2022-06-08 01:00 6.19 µg/m3 -0.04 µg/m3 68.62 µg/m3 0.3 mg/m3 23.63 °C 80.98 % 1,009.82 mbar 2.68 m/s 326.42 Deg 0.76 µg/m3 0 µg/m3
2022-06-08 00:00 6.02 µg/m3 -0.04 µg/m3 69.95 µg/m3 0.33 mg/m3 22.91 °C 84.24 % 1,010.35 mbar 3.34 m/s 261.27 Deg 0.77 µg/m3 0 µg/m3
2022-06-07 23:00 10.84 µg/m3 0.12 µg/m3 55.66 µg/m3 0.37 mg/m3 22.75 °C 86.31 % 1,010.88 mbar 4.29 m/s 240.11 Deg 1.47 µg/m3 0 µg/m3
2022-06-07 22:00 15.16 µg/m3 0.07 µg/m3 57.05 µg/m3 0.4 mg/m3 22.64 °C 86.97 % 1,010.87 mbar 3.94 m/s 242.65 Deg 1.94 µg/m3 0.58 µg/m3
2022-06-07 21:00 15.34 µg/m3 0.18 µg/m3 65.19 µg/m3 0.42 mg/m3 23.04 °C 87.54 % 1,010.57 mbar 3.08 m/s 255.21 Deg 1.91 µg/m3 0 µg/m3
2022-06-07 20:00 19.72 µg/m3 0.38 µg/m3 67.57 µg/m3 0.45 mg/m3 24.21 °C 80.42 % 1,010.33 mbar 2.74 m/s 257.42 Deg 2.85 µg/m3 8.82 µg/m3
2022-06-07 19:00 16.28 µg/m3 1.05 µg/m3 81.49 µg/m3 0.45 mg/m3 26.96 °C 47.06 % 1,009.98 mbar 1.65 m/s 17.38 Deg 3.81 µg/m3 2.26 µg/m3
2022-06-07 18:00 16.55 µg/m3 0.98 µg/m3 81.25 µg/m3 0.48 mg/m3 26.8 °C 56.67 % 1,009.75 mbar 2.35 m/s 200.7 Deg 3.25 µg/m3 8.45 µg/m3
2022-06-07 17:00 13.24 µg/m3 0.61 µg/m3 77.8 µg/m3 0.46 mg/m3 25.93 °C 68.34 % 1,009.93 mbar 3.46 m/s 163.3 Deg 3.93 µg/m3 6.93 µg/m3
2022-06-07 16:00 12.05 µg/m3 0.86 µg/m3 84.07 µg/m3 0.43 mg/m3 26.43 °C 65.21 % 1,010.58 mbar 3.95 m/s 40.5 Deg 2.8 µg/m3 0 µg/m3
2022-06-07 15:00 9.51 µg/m3 0.53 µg/m3 92.92 µg/m3 0.39 mg/m3 26.85 °C 56.92 % 1,011.08 mbar 4.11 m/s 263.42 Deg 3.18 µg/m3 5.3 µg/m3
2022-06-07 14:00 11.87 µg/m3 0.83 µg/m3 85.51 µg/m3 0.42 mg/m3 27.84 °C 53.86 % 1,011.39 mbar 3.07 m/s 99.23 Deg 3.77 µg/m3 0.42 µg/m3
2022-06-07 13:00 16.3 µg/m3 1.22 µg/m3 76.3 µg/m3 0.45 mg/m3 27.86 °C 53.96 % 1,011.63 mbar 2.7 m/s 271.79 Deg 4.2 µg/m3 2.47 µg/m3
2022-06-07 12:00 18.69 µg/m3 1.08 µg/m3 66.89 µg/m3 0.46 mg/m3 27.52 °C 55.65 % 1,011.63 mbar 2.78 m/s 173.6 Deg 5.27 µg/m3 0.42 µg/m3
2022-06-07 11:00 21.79 µg/m3 1.28 µg/m3 59.55 µg/m3 0.49 mg/m3 27.67 °C 55.66 % 1,012.05 mbar 3.54 m/s 246.95 Deg 7.88 µg/m3 0 µg/m3
2022-06-07 10:00 27.3 µg/m3 1.31 µg/m3 51.63 µg/m3 0.49 mg/m3 28.23 °C 42.93 % 1,011.61 mbar 1.77 m/s 74.75 Deg 17.6 µg/m3 2.83 µg/m3
2022-06-07 09:00 26.47 µg/m3 0.81 µg/m3 42.92 µg/m3 0.41 mg/m3 26.17 °C 61.73 % 1,011.31 mbar 1.86 m/s 119.87 Deg 18.21 µg/m3 2.89 µg/m3
2022-06-07 08:00 22.3 µg/m3 0.81 µg/m3 46.12 µg/m3 0.37 mg/m3 24.99 °C 71.02 % 1,011.19 mbar 2.45 m/s 160.47 Deg 6.67 µg/m3 0 µg/m3
2022-06-07 07:00 10.4 µg/m3 0.41 µg/m3 60.82 µg/m3 0.31 mg/m3 24.87 °C 68.48 % 1,010.96 mbar 4.79 m/s 119.08 Deg 2.09 µg/m3 0 µg/m3
2022-06-07 06:00 9.35 µg/m3 0.36 µg/m3 69.41 µg/m3 0.27 mg/m3 27.47 °C 39.84 % 1,011.00 mbar 2.8 m/s 265.84 Deg 2.17 µg/m3 3.73 µg/m3
2022-06-07 05:00 8.6 µg/m3 0.3 µg/m3 71.75 µg/m3 0.26 mg/m3 26.74 °C 42.04 % 1,011.23 mbar 2.3 m/s 220.04 Deg 0.97 µg/m3 0 µg/m3
2022-06-07 04:00 13.17 µg/m3 -0.17 µg/m3 52.94 µg/m3 0.26 mg/m3 22.97 °C 80.12 % 1,011.76 mbar 2.98 m/s 247.39 Deg 0.87 µg/m3 2.62 µg/m3
2022-06-07 03:00 22.42 µg/m3 -0.16 µg/m3 51.76 µg/m3 0.18 mg/m3 22.36 °C 93.04 % 1,012.51 mbar 4.65 m/s 253.16 Deg 0.91 µg/m3 6.98 µg/m3
2022-06-07 02:00 5.93 µg/m3 -0.16 µg/m3 48.7 µg/m3 0.29 mg/m3 22.87 °C 88.38 % 1,012.59 mbar 3.9 m/s 245.62 Deg 0.94 µg/m3 0 µg/m3
2022-06-07 01:00 8.62 µg/m3 -0.02 µg/m3 51.75 µg/m3 0.29 mg/m3 22.98 °C 86.34 % 1,012.57 mbar 3.35 m/s 239.38 Deg 1.8 µg/m3 0 µg/m3
2022-06-07 00:00 14.16 µg/m3 0.17 µg/m3 52.58 µg/m3 0.3 mg/m3 23.26 °C 85.87 % 1,012.88 mbar 3.79 m/s 225.46 Deg 4.49 µg/m3 0.26 µg/m3
2022-06-06 23:00 12.26 µg/m3 0.02 µg/m3 59.47 µg/m3 0.29 mg/m3 23.1 °C 87.32 % 1,012.91 mbar 3.9 m/s 242.53 Deg 3.06 µg/m3 0 µg/m3
2022-06-06 22:00 12.09 µg/m3 -0.06 µg/m3 61.19 µg/m3 0.28 mg/m3 23.07 °C 87.55 % 1,012.89 mbar 4.49 m/s 251.18 Deg 2.14 µg/m3 0.89 µg/m3
2022-06-06 21:00 10.91 µg/m3 0.29 µg/m3 62.7 µg/m3 0.29 mg/m3 22.98 °C 89.29 % 1,012.77 mbar 4.57 m/s 253.93 Deg 1.69 µg/m3 0.73 µg/m3
2022-06-06 20:00 12.48 µg/m3 0.21 µg/m3 65.65 µg/m3 0.28 mg/m3 23.16 °C 88.81 % 1,012.80 mbar 5.06 m/s 257.11 Deg 1.76 µg/m3 0.21 µg/m3
2022-06-06 19:00 11.5 µg/m3 0.15 µg/m3 70.64 µg/m3 0.25 mg/m3 23.85 °C 85.1 % 1,012.80 mbar 5.61 m/s 255.9 Deg 2.01 µg/m3 0.21 µg/m3
2022-06-06 18:00 10.28 µg/m3 0.13 µg/m3 73.67 µg/m3 0.26 mg/m3 24.55 °C 82.17 % 1,013.11 mbar 5.88 m/s 262.1 Deg 2.72 µg/m3 0.16 µg/m3
2022-06-06 17:00 9.55 µg/m3 0.02 µg/m3 66.07 µg/m3 0.26 mg/m3 24.97 °C 80.18 % 1,013.57 mbar 5.92 m/s 266.48 Deg 3.38 µg/m3 0.1 µg/m3
2022-06-06 16:00 8.36 µg/m3 0.12 µg/m3 67.99 µg/m3 0.25 mg/m3 25.19 °C 79.04 % 1,013.76 mbar 7.38 m/s 252.14 Deg 3.26 µg/m3 0.07 µg/m3
2022-06-06 15:00 10.75 µg/m3 0.13 µg/m3 71.22 µg/m3 0.25 mg/m3 25.51 °C 78.65 % 1,013.99 mbar 7.44 m/s 255.76 Deg 4.12 µg/m3 0.1 µg/m3
2022-06-06 14:00 11.55 µg/m3 0.07 µg/m3 68.43 µg/m3 0.26 mg/m3 25.52 °C 80.69 % 1,014.23 mbar 6.55 m/s 261.79 Deg 5.26 µg/m3 0.42 µg/m3
2022-06-06 13:00 10.16 µg/m3 -0.16 µg/m3 72.72 µg/m3 0.27 mg/m3 25.33 °C 81.95 % 1,014.44 mbar 6.57 m/s 268.81 Deg 3.33 µg/m3 0.26 µg/m3
2022-06-06 12:00 10 µg/m3 -0.1 µg/m3 72.09 µg/m3 0.27 mg/m3 25.1 °C 83.08 % 1,014.41 mbar 6.94 m/s 273.72 Deg 3.57 µg/m3 0.42 µg/m3
2022-06-06 11:00 12.28 µg/m3 0.07 µg/m3 69.42 µg/m3 0.26 mg/m3 25.08 °C 82.29 % 1,014.36 mbar 6.48 m/s 273.34 Deg 5.18 µg/m3 0.52 µg/m3
2022-06-06 10:00 13.69 µg/m3 -0.06 µg/m3 61.94 µg/m3 0.23 mg/m3 24.97 °C 83.35 % 1,014.49 mbar 6.07 m/s 267.47 Deg 6.43 µg/m3 0.47 µg/m3
2022-06-06 09:00 18.65 µg/m3 0.04 µg/m3 52.65 µg/m3 0.2 mg/m3 24.84 °C 82.89 % 1,014.63 mbar 5.53 m/s 273.89 Deg 7.77 µg/m3 0.58 µg/m3
2022-06-06 08:00 15.9 µg/m3 0.26 µg/m3 48.91 µg/m3 0.29 mg/m3 24.43 °C 83.82 % 1,014.73 mbar 5.42 m/s 255.55 Deg 5.38 µg/m3 0.52 µg/m3
2022-06-06 07:00 18.45 µg/m3 0.1 µg/m3 44.9 µg/m3 0.34 mg/m3 23.67 °C 86.2 % 1,014.60 mbar 4.76 m/s 256.55 Deg 5.45 µg/m3 0.79 µg/m3
2022-06-06 06:00 17.5 µg/m3 0.17 µg/m3 45.65 µg/m3 0.35 mg/m3 22.84 °C 92.88 % 1,014.66 mbar 4.75 m/s 251.17 Deg 5.39 µg/m3 1.57 µg/m3
2022-06-06 05:00 12.28 µg/m3 -0.15 µg/m3 49.76 µg/m3 0.35 mg/m3 22.82 °C 96.27 % 1,014.40 mbar 4.07 m/s 246.09 Deg 2.35 µg/m3 1.57 µg/m3
2022-06-06 04:00 12.39 µg/m3 -0.09 µg/m3 53.22 µg/m3 0.35 mg/m3 22.93 °C 94.55 % 1,014.17 mbar 4.05 m/s 246.54 Deg 1.34 µg/m3 1.57 µg/m3
2022-06-06 03:00 24.26 µg/m3 -0.07 µg/m3 56.62 µg/m3 0.24 mg/m3 23.18 °C 92.16 % 1,014.37 mbar 3.27 m/s 239.18 Deg 1.17 µg/m3 1.57 µg/m3
2022-06-06 02:00 5.28 µg/m3 0.07 µg/m3 42.21 µg/m3 0.4 mg/m3 23.21 °C 92.08 % 1,014.62 mbar 3.38 m/s 241.07 Deg 0.7 µg/m3 1.57 µg/m3
2022-06-06 01:00 7.95 µg/m3 0.28 µg/m3 50.29 µg/m3 0.44 mg/m3 23.14 °C 94.67 % 1,015.12 mbar 2.68 m/s 242.73 Deg 1.26 µg/m3 1.57 µg/m3
2022-06-06 00:00 17.88 µg/m3 0.27 µg/m3 50.09 µg/m3 0.48 mg/m3 23.31 °C 91.85 % 1,015.49 mbar 2.3 m/s 239.71 Deg 3.95 µg/m3 1.57 µg/m3
2022-06-05 23:00 24.39 µg/m3 0.4 µg/m3 48.54 µg/m3 0.53 mg/m3 23.46 °C 89.84 % 1,015.59 mbar 1.73 m/s 234.43 Deg 4.96 µg/m3 1.57 µg/m3
2022-06-05 22:00 35.68 µg/m3 0.9 µg/m3 35.88 µg/m3 0.55 mg/m3 24.3 °C 81.1 % 1,015.60 mbar 1.78 m/s 215.59 Deg 8.99 µg/m3 1.57 µg/m3
2022-06-05 21:00 46.69 µg/m3 1.08 µg/m3 31.39 µg/m3 0.55 mg/m3 25.18 °C 72.83 % 994.19 mbar 1.17 m/s 220.4 Deg 13.91 µg/m3 1.57 µg/m3
2022-06-05 20:00 40.1 µg/m3 0.78 µg/m3 50.49 µg/m3 0.47 mg/m3 26 °C 70.77 % 1,015.37 mbar 1.42 m/s 202.94 Deg 9.86 µg/m3 1.57 µg/m3
2022-06-05 19:00 22.04 µg/m3 1.02 µg/m3 71.64 µg/m3 0.39 mg/m3 27.18 °C 60.97 % 1,015.34 mbar 3.14 m/s 236.41 Deg 3.12 µg/m3 1.57 µg/m3
2022-06-05 18:00 21.37 µg/m3 1.37 µg/m3 69.17 µg/m3 0.36 mg/m3 28.95 °C 48.21 % 1,015.18 mbar 3.85 m/s 196.4 Deg 4.88 µg/m3 1.57 µg/m3
2022-06-05 17:00 14.14 µg/m3 0.99 µg/m3 70.81 µg/m3 0.36 mg/m3 30.7 °C 38.45 % 1,015.38 mbar 4.53 m/s 252.27 Deg 3.69 µg/m3 1.57 µg/m3
2022-06-05 16:00 18.17 µg/m3 1.04 µg/m3 76.21 µg/m3 0.38 mg/m3 31.87 °C 34.18 % 1,015.79 mbar 3.58 m/s 254.83 Deg 5.25 µg/m3 1.57 µg/m3
2022-06-05 15:00 14.97 µg/m3 1.09 µg/m3 81.66 µg/m3 0.38 mg/m3 31.42 °C 41.6 % 1,016.21 mbar 3.38 m/s 162.26 Deg 3.48 µg/m3 1.57 µg/m3
2022-06-05 14:00 16.28 µg/m3 1.06 µg/m3 80.12 µg/m3 0.41 mg/m3 30.51 °C 50.13 % 1,016.32 mbar 3.49 m/s 204.52 Deg 4.1 µg/m3 1.57 µg/m3
2022-06-05 13:00 16.55 µg/m3 1.26 µg/m3 72.06 µg/m3 0.44 mg/m3 30.63 °C 49.85 % 1,016.41 mbar 3.56 m/s 234.42 Deg 4.16 µg/m3 1.57 µg/m3
2022-06-05 12:00 19.63 µg/m3 1.13 µg/m3 75.33 µg/m3 0.44 mg/m3 31.71 °C 34.41 % 1,016.41 mbar 2.77 m/s 278.69 Deg 7.16 µg/m3 1.57 µg/m3
2022-06-05 11:00 19.76 µg/m3 1.43 µg/m3 67.41 µg/m3 0.47 mg/m3 31.31 °C 38.96 % 1,016.46 mbar 2.18 m/s 261.89 Deg 4.87 µg/m3 1.57 µg/m3
2022-06-05 10:00 23.97 µg/m3 1.69 µg/m3 59.73 µg/m3 0.47 mg/m3 29.97 °C 45.54 % 1,016.56 mbar 3.03 m/s 219.05 Deg 6.79 µg/m3 1.57 µg/m3
2022-06-05 09:00 21.25 µg/m3 1.43 µg/m3 70.23 µg/m3 0.47 mg/m3 29.08 °C 44.75 % 1,016.76 mbar 2.99 m/s 222.88 Deg 5.93 µg/m3 1.57 µg/m3
2022-06-05 08:00 19.31 µg/m3 1.52 µg/m3 70.2 µg/m3 0.45 mg/m3 28.57 °C 43.22 % 1,016.67 mbar 2.53 m/s 282.37 Deg 4.3 µg/m3 1.57 µg/m3
2022-06-05 07:00 37.14 µg/m3 1.33 µg/m3 33.41 µg/m3 0.47 mg/m3 26.59 °C 51.48 % 1,016.27 mbar 0.8 m/s 219.5 Deg 12.69 µg/m3 1.57 µg/m3
2022-06-05 06:00 43.67 µg/m3 0.72 µg/m3 41.57 µg/m3 0.4 mg/m3 25.7 °C 45.95 % 1,015.90 mbar 0.63 m/s 232.87 Deg 14.11 µg/m3 1.57 µg/m3
2022-06-05 05:00 29.12 µg/m3 0.46 µg/m3 52.5 µg/m3 0.36 mg/m3 24.74 °C 55.15 % 1,015.54 mbar 1.04 m/s 205.8 Deg 7.46 µg/m3 1.57 µg/m3
2022-06-05 04:00 14.3 µg/m3 -0.01 µg/m3 67.18 µg/m3 0.35 mg/m3 24.74 °C 56.74 % 1,015.53 mbar 2.42 m/s 209.84 Deg 1.13 µg/m3 1.57 µg/m3
2022-06-05 03:00 28.65 µg/m3 0.43 µg/m3 63.7 µg/m3 0.25 mg/m3 24.54 °C 56.07 % 1,015.43 mbar 2.19 m/s 230.2 Deg 2.7 µg/m3 1.57 µg/m3
2022-06-05 02:00 9.39 µg/m3 0.24 µg/m3 62.38 µg/m3 0.41 mg/m3 24.55 °C 59.54 % 1,016.07 mbar 2.07 m/s 208.51 Deg 0.96 µg/m3 1.57 µg/m3
2022-06-05 01:00 22.98 µg/m3 0.23 µg/m3 49.96 µg/m3 0.46 mg/m3 24.52 °C 62.9 % 1,016.64 mbar 1.87 m/s 205.63 Deg 4.48 µg/m3 1.57 µg/m3
2022-06-05 00:00 30.82 µg/m3 0.69 µg/m3 47.39 µg/m3 0.49 mg/m3 24.63 °C 63.55 % 1,016.59 mbar 2.5 m/s 219.2 Deg 6.72 µg/m3 1.57 µg/m3
2022-06-04 23:00 37.3 µg/m3 0.76 µg/m3 41.42 µg/m3 0.5 mg/m3 24.97 °C 57.47 % 1,016.53 mbar 2.82 m/s 175.98 Deg 11.56 µg/m3 1.57 µg/m3
2022-06-04 22:00 38.62 µg/m3 0.81 µg/m3 43.86 µg/m3 0.51 mg/m3 25.34 °C 53.13 % 1,016.78 mbar 2.52 m/s 226.69 Deg 11.03 µg/m3 1.57 µg/m3
2022-06-04 21:00 41.16 µg/m3 0.96 µg/m3 39.75 µg/m3 0.51 mg/m3 25.55 °C 52.32 % 1,016.78 mbar 1.86 m/s 189 Deg 10.7 µg/m3 1.57 µg/m3
2022-06-04 20:00 43.42 µg/m3 0.73 µg/m3 51.22 µg/m3 0.47 mg/m3 26.34 °C 53.27 % 1,016.62 mbar 1.89 m/s 196.56 Deg 10.5 µg/m3 1.57 µg/m3
2022-06-04 19:00 26.67 µg/m3 0.71 µg/m3 65.57 µg/m3 0.4 mg/m3 27.72 °C 48.16 % 1,016.30 mbar 2.55 m/s 230.32 Deg 4.57 µg/m3 1.57 µg/m3
2022-06-04 18:00 30.5 µg/m3 1.07 µg/m3 65.01 µg/m3 0.41 mg/m3 29.69 °C 41.03 % 1,015.92 mbar 2.52 m/s 179.67 Deg 7.19 µg/m3 1.57 µg/m3
2022-06-04 17:00 30.56 µg/m3 0.97 µg/m3 66.04 µg/m3 0.41 mg/m3 30.21 °C 39.29 % 1,015.94 mbar 3.24 m/s 250.4 Deg 9 µg/m3 1.57 µg/m3
2022-06-04 16:00 21.65 µg/m3 1.31 µg/m3 75.12 µg/m3 0.43 mg/m3 31.15 °C 37.06 % 1,015.96 mbar 3.56 m/s 225.07 Deg 5.03 µg/m3 1.57 µg/m3
2022-06-04 15:00 24.67 µg/m3 1.46 µg/m3 70.28 µg/m3 0.47 mg/m3 31.79 °C 33.29 % 1,016.27 mbar 2.41 m/s 224.36 Deg 6.4 µg/m3 1.57 µg/m3
2022-06-04 14:00 21.57 µg/m3 1.38 µg/m3 67.48 µg/m3 0.47 mg/m3 31.07 °C 29.67 % 1,016.59 mbar 2.22 m/s 173.11 Deg 5.74 µg/m3 1.57 µg/m3
2022-06-04 13:00 27.22 µg/m3 1.55 µg/m3 60.51 µg/m3 0.49 mg/m3 29.98 °C 35.4 % 1,016.77 mbar 3.3 m/s 38.85 Deg 7.29 µg/m3 1.57 µg/m3
2022-06-04 12:00 29.17 µg/m3 2.02 µg/m3 62.08 µg/m3 0.5 mg/m3 29.65 °C 35.12 % 1,016.94 mbar 3.08 m/s 26.83 Deg 9.85 µg/m3 1.57 µg/m3
2022-06-04 11:00 27.14 µg/m3 1.82 µg/m3 66.33 µg/m3 0.52 mg/m3 29.04 °C 35.38 % 1,017.06 mbar 2.36 m/s 165.72 Deg 7.83 µg/m3 1.57 µg/m3
2022-06-04 10:00 27.33 µg/m3 2.48 µg/m3 64.5 µg/m3 0.55 mg/m3 28.2 °C 37.08 % 999.96 mbar 3.39 m/s 171.65 Deg 9.31 µg/m3 1.57 µg/m3
2022-06-04 09:00 33.98 µg/m3 2.17 µg/m3 57.5 µg/m3 0.58 mg/m3 28.37 °C 36.56 % 1,016.69 mbar 2.68 m/s 156.79 Deg 11.13 µg/m3 1.57 µg/m3
2022-06-04 08:00 43.88 µg/m3 2.02 µg/m3 40.72 µg/m3 0.63 mg/m3 27.97 °C 35.22 % 1,016.44 mbar 0.94 m/s 191.31 Deg 18.21 µg/m3 1.89 µg/m3
2022-06-04 07:00 63.98 µg/m3 2.33 µg/m3 10.91 µg/m3 0.64 mg/m3 25.19 °C 43.98 % 1,016.14 mbar 0.44 m/s 248.61 Deg 44.1 µg/m3 2.68 µg/m3
2022-06-04 06:00 85.46 µg/m3 2.72 µg/m3 2.04 µg/m3 0.69 mg/m3 23.27 °C 41.28 % 1,015.68 mbar 0.13 m/s 242.74 Deg 116.46 µg/m3 2.57 µg/m3
2022-06-04 05:00 65.25 µg/m3 1.25 µg/m3 10.85 µg/m3 0.52 mg/m3 22.93 °C 39.8 % 1,015.25 mbar 0.19 m/s 310.54 Deg 52.87 µg/m3 0.52 µg/m3
2022-06-04 04:00 61.41 µg/m3 0.93 µg/m3 14.58 µg/m3 0.49 mg/m3 23.12 °C 40.76 % 1,015.13 mbar 0.07 m/s 257.41 Deg 38.12 µg/m3 0.63 µg/m3
2022-06-04 03:00 43.56 µg/m3 0.49 µg/m3 37 µg/m3 0.36 mg/m3 22.51 °C 41.78 % 1,015.38 mbar 0.67 m/s 204.78 Deg 10.99 µg/m3 0.37 µg/m3
2022-06-04 02:00 29.27 µg/m3 0.71 µg/m3 34.33 µg/m3 0.62 mg/m3 23.14 °C 41.5 % 1,015.78 mbar 0.98 m/s 195.97 Deg 6.45 µg/m3 0.68 µg/m3
2022-06-04 01:00 46.95 µg/m3 1.51 µg/m3 18.96 µg/m3 0.71 mg/m3 22.81 °C 50.97 % 1,015.93 mbar 0.76 m/s 202.03 Deg 12.1 µg/m3 3.57 µg/m3
2022-06-04 00:00 87.49 µg/m3 2.72 µg/m3 1.55 µg/m3 0.93 mg/m3 23.69 °C 59.22 % 1,016.31 mbar 0 m/s 264.73 Deg 57.45 µg/m3 3.46 µg/m3
2022-06-03 23:00 84.59 µg/m3 1.89 µg/m3 7.07 µg/m3 0.7 mg/m3 23.91 °C 61.62 % 1,016.49 mbar 0 m/s 176.79 Deg 40.1 µg/m3 3.04 µg/m3
2022-06-03 22:00 77.66 µg/m3 1.03 µg/m3 18.46 µg/m3 0.62 mg/m3 24.19 °C 70.09 % 1,016.43 mbar 0.17 m/s 76.78 Deg 17.61 µg/m3 2.05 µg/m3
2022-06-03 21:00 29.42 µg/m3 0.47 µg/m3 76.72 µg/m3 0.46 mg/m3 24.81 °C 74.24 % 1,016.34 mbar 0.8 m/s 45.44 Deg 3.95 µg/m3 0.68 µg/m3
2022-06-03 20:00 21.53 µg/m3 0.51 µg/m3 85.94 µg/m3 0.44 mg/m3 25 °C 74.54 % 1,015.90 mbar 1.12 m/s 22.37 Deg 3.7 µg/m3 0.94 µg/m3
2022-06-03 19:00 27.68 µg/m3 0.7 µg/m3 80.34 µg/m3 0.44 mg/m3 26.3 °C 64.97 % 1,016.00 mbar 1.73 m/s 98.88 Deg 21.6 µg/m3 1.15 µg/m3
2022-06-03 18:00 20.45 µg/m3 1.1 µg/m3 79.4 µg/m3 0.42 mg/m3 28.33 °C 46.37 % 1,015.80 mbar 2.24 m/s 217.51 Deg 3.3 µg/m3 0.47 µg/m3
2022-06-03 17:00 22.07 µg/m3 1.54 µg/m3 79.83 µg/m3 0.42 mg/m3 29.9 °C 39.53 % 1,015.88 mbar 3.05 m/s 219.79 Deg 5.69 µg/m3 0.84 µg/m3
2022-06-03 16:00 26.48 µg/m3 2.05 µg/m3 79.51 µg/m3 0.45 mg/m3 30.37 °C 38.87 % 1,016.10 mbar 1.91 m/s 253.67 Deg 6.58 µg/m3 0.89 µg/m3
2022-06-03 15:00 33.68 µg/m3 2.01 µg/m3 68.87 µg/m3 0.48 mg/m3 27.82 °C 53.92 % 1,016.24 mbar 2.22 m/s 63.9 Deg 10.19 µg/m3 0.79 µg/m3
2022-06-03 14:00 25.95 µg/m3 1.77 µg/m3 83.86 µg/m3 0.46 mg/m3 28.5 °C 43.13 % 1,016.46 mbar 2.56 m/s 74.35 Deg 6.11 µg/m3 0.31 µg/m3
2022-06-03 13:00 22.16 µg/m3 2.31 µg/m3 88.28 µg/m3 0.46 mg/m3 28 °C 40.92 % 1,016.60 mbar 2.46 m/s 182.19 Deg 5.24 µg/m3 0.73 µg/m3
2022-06-03 12:00 33.27 µg/m3 2.72 µg/m3 72.23 µg/m3 0.48 mg/m3 27.45 °C 43.45 % 1,016.78 mbar 2.14 m/s 94.03 Deg 9.58 µg/m3 0.89 µg/m3
2022-06-03 11:00 42.07 µg/m3 2.85 µg/m3 61.9 µg/m3 0.52 mg/m3 26.33 °C 49.54 % 1,016.77 mbar 2.39 m/s 122.95 Deg 19.19 µg/m3 1.26 µg/m3
2022-06-03 10:00 40.09 µg/m3 2.79 µg/m3 59.8 µg/m3 0.54 mg/m3 26.26 °C 53.38 % 1,016.32 mbar 2.21 m/s 102.55 Deg 12.59 µg/m3 1.36 µg/m3
2022-06-03 09:00 40.7 µg/m3 2.19 µg/m3 60.16 µg/m3 0.58 mg/m3 26.25 °C 48.79 % 1,016.03 mbar 1.76 m/s 190.84 Deg 17.08 µg/m3 1 µg/m3
2022-06-03 08:00 35.56 µg/m3 2.02 µg/m3 42.1 µg/m3 0.62 mg/m3 26.14 °C 44.61 % 997.09 mbar 1.41 m/s 210.53 Deg 17.14 µg/m3 2.2 µg/m3
2022-06-03 07:00 67.71 µg/m3 2.91 µg/m3 5.44 µg/m3 0.7 mg/m3 24.15 °C 53.36 % 1,015.35 mbar 0.56 m/s 272.59 Deg 95.06 µg/m3 4.41 µg/m3
2022-06-03 06:00 72.82 µg/m3 2.4 µg/m3 5.26 µg/m3 0.67 mg/m3 21.85 °C 52.95 % 1,015.12 mbar 0.56 m/s 240.44 Deg 165.83 µg/m3 2.57 µg/m3
2022-06-03 05:00 56.89 µg/m3 1.04 µg/m3 11.95 µg/m3 0.46 mg/m3 20.94 °C 57.17 % 1,014.91 mbar 0.64 m/s 198.9 Deg 61.32 µg/m3 1.1 µg/m3
2022-06-03 04:00 43.39 µg/m3 0.52 µg/m3 22.47 µg/m3 0.42 mg/m3 21.21 °C 61.69 % 1,014.84 mbar 0.54 m/s 251.55 Deg 15.25 µg/m3 1.15 µg/m3
2022-06-03 03:00 51.32 µg/m3 0.48 µg/m3 38.03 µg/m3 0.29 mg/m3 21.93 °C 62.74 % 1,015.04 mbar 0.21 m/s 261.32 Deg 18.85 µg/m3 0.89 µg/m3
2022-06-03 02:00 18.45 µg/m3 0.48 µg/m3 48.07 µg/m3 0.5 mg/m3 21.87 °C 54.49 % 1,015.22 mbar 1.15 m/s 206.99 Deg 2.42 µg/m3 0.68 µg/m3
2022-06-03 01:00 18.83 µg/m3 0.87 µg/m3 47.97 µg/m3 0.55 mg/m3 22.15 °C 52.9 % 1,015.36 mbar 1.19 m/s 224.15 Deg 3.63 µg/m3 1.84 µg/m3
2022-06-03 00:00 34.63 µg/m3 1.22 µg/m3 43.78 µg/m3 0.63 mg/m3 23.4 °C 56.85 % 1,015.52 mbar 0.58 m/s 174.1 Deg 4.65 µg/m3 1.63 µg/m3
2022-06-02 23:00 50.49 µg/m3 1.12 µg/m3 27.65 µg/m3 0.63 mg/m3 24.04 °C 54.62 % 1,015.36 mbar 0.66 m/s 261.91 Deg 12.37 µg/m3 2.31 µg/m3
2022-06-02 22:00 72.15 µg/m3 1.25 µg/m3 7.76 µg/m3 0.69 mg/m3 23.9 °C 58.02 % 1,015.51 mbar 0.19 m/s 190.51 Deg 26.06 µg/m3 1.84 µg/m3
2022-06-02 21:00 50.28 µg/m3 0.69 µg/m3 49.31 µg/m3 0.54 mg/m3 24.44 °C 63.21 % 1,015.30 mbar 0.68 m/s 140.35 Deg 12.93 µg/m3 0.79 µg/m3
2022-06-02 20:00 25.78 µg/m3 0.46 µg/m3 69.56 µg/m3 0.46 mg/m3 25.59 °C 55.62 % 981.00 mbar 1.47 m/s 153.57 Deg 4.53 µg/m3 0.89 µg/m3
2022-06-02 19:00 25.74 µg/m3 0.91 µg/m3 69.47 µg/m3 0.46 mg/m3 26.69 °C 52.44 % 1,014.45 mbar 1.83 m/s 151 Deg 4.63 µg/m3 1.1 µg/m3
2022-06-02 18:00 24.89 µg/m3 1.3 µg/m3 73.43 µg/m3 0.47 mg/m3 29.39 °C 41.34 % 1,014.00 mbar 1.74 m/s 288.23 Deg 5.03 µg/m3 0.94 µg/m3
2022-06-02 17:00 29.05 µg/m3 1.45 µg/m3 67.96 µg/m3 0.46 mg/m3 30.98 °C 35.8 % 1,013.71 mbar 2.13 m/s 274.14 Deg 7.54 µg/m3 1.15 µg/m3
2022-06-02 16:00 37.56 µg/m3 1.5 µg/m3 60.32 µg/m3 0.48 mg/m3 30.62 °C 37.07 % 1,013.77 mbar 2.46 m/s 120.15 Deg 14.62 µg/m3 1.15 µg/m3
2022-06-02 15:00 29.87 µg/m3 0.97 µg/m3 65.42 µg/m3 0.49 mg/m3 28.26 °C 51.23 % 1,014.08 mbar 2.76 m/s 111.13 Deg 13.17 µg/m3 0.94 µg/m3
2022-06-02 14:00 28.71 µg/m3 1.52 µg/m3 68.5 µg/m3 0.49 mg/m3 29.06 °C 45.1 % 1,014.09 mbar 2.72 m/s 113.61 Deg 8.28 µg/m3 0.94 µg/m3
2022-06-02 13:00 27.45 µg/m3 2.09 µg/m3 66.71 µg/m3 0.49 mg/m3 30 °C 38.47 % 1,014.28 mbar 2.19 m/s 111.8 Deg 9.75 µg/m3 2.15 µg/m3
2022-06-02 12:00 32.93 µg/m3 1.71 µg/m3 55.99 µg/m3 0.52 mg/m3 25.71 °C 69.05 % 1,014.61 mbar 3.72 m/s 268.37 Deg 11.11 µg/m3 0 µg/m3
2022-06-02 11:00 25.55 µg/m3 0.5 µg/m3 56.92 µg/m3 0.55 mg/m3 23.82 °C 89.37 % 1,014.63 mbar 3.89 m/s 186.36 Deg 8.43 µg/m3 0 µg/m3
2022-06-02 10:00 27.84 µg/m3 1.2 µg/m3 53.8 µg/m3 0.56 mg/m3 24.06 °C 83.57 % 1,014.59 mbar 3.69 m/s 203.03 Deg 9.53 µg/m3 0 µg/m3
2022-06-02 09:00 36.51 µg/m3 1.27 µg/m3 41.52 µg/m3 0.51 mg/m3 23.69 °C 85.72 % 1,014.34 mbar 2.73 m/s 43.17 Deg 13.49 µg/m3 0 µg/m3
2022-06-02 08:00 38.53 µg/m3 0.87 µg/m3 33.83 µg/m3 0.49 mg/m3 23.85 °C 86.2 % 1,014.06 mbar 2.5 m/s 130.01 Deg 14.71 µg/m3 0 µg/m3
2022-06-02 07:00 47.31 µg/m3 1.24 µg/m3 18 µg/m3 0.5 mg/m3 23.82 °C 83.24 % 1,013.82 mbar 1.24 m/s 112.49 Deg 28.06 µg/m3 0 µg/m3
2022-06-02 06:00 44.99 µg/m3 1.43 µg/m3 5.06 µg/m3 0.51 mg/m3 22.62 °C 85.81 % 1,013.52 mbar 1.12 m/s 192.97 Deg 33.11 µg/m3 0 µg/m3
2022-06-02 05:00 43.37 µg/m3 1.12 µg/m3 4.69 µg/m3 0.51 mg/m3 22.03 °C 82.9 % 1,013.19 mbar 0.54 m/s 161.46 Deg 56.52 µg/m3 0 µg/m3
2022-06-02 04:00 35.91 µg/m3 0.39 µg/m3 17.57 µg/m3 0.42 mg/m3 22.32 °C 87.02 % 1,012.87 mbar 0.59 m/s 194.36 Deg 11.49 µg/m3 0 µg/m3
2022-06-02 03:00 41.01 µg/m3 0.32 µg/m3 24.74 µg/m3 0.29 mg/m3 22.31 °C 86.71 % 1,013.08 mbar 0.66 m/s 95.54 Deg 5.39 µg/m3 0 µg/m3
2022-06-02 02:00 27.51 µg/m3 0.6 µg/m3 14.05 µg/m3 0.48 mg/m3 22.42 °C 82.64 % 1,013.30 mbar 0.56 m/s 67.2 Deg 4.72 µg/m3 0 µg/m3
2022-06-02 01:00 33.67 µg/m3 0.85 µg/m3 21.72 µg/m3 0.52 mg/m3 22.98 °C 75.85 % 1,013.41 mbar 0.73 m/s 154.86 Deg 14.81 µg/m3 0.47 µg/m3
2022-06-02 00:00 29.11 µg/m3 0.81 µg/m3 24.3 µg/m3 0.57 mg/m3 23.36 °C 67.6 % 1,013.77 mbar 1.54 m/s 188.59 Deg 7.98 µg/m3 1.52 µg/m3
2022-06-01 23:00 39.43 µg/m3 1.05 µg/m3 11.98 µg/m3 0.63 mg/m3 23.51 °C 68.24 % 1,014.00 mbar 0.89 m/s 217.21 Deg 21.42 µg/m3 1.73 µg/m3
2022-06-01 22:00 46 µg/m3 0.8 µg/m3 12.59 µg/m3 0.61 mg/m3 24.11 °C 74.7 % 1,013.89 mbar 0.52 m/s 203.33 Deg 18.32 µg/m3 2.05 µg/m3
2022-06-01 21:00 46.13 µg/m3 0.85 µg/m3 23.13 µg/m3 0.6 mg/m3 24.88 °C 72.99 % 1,013.67 mbar 0.24 m/s 235.62 Deg 11.71 µg/m3 1.73 µg/m3
2022-06-01 20:00 30.77 µg/m3 0.93 µg/m3 32.42 µg/m3 0.58 mg/m3 25.67 °C 74.65 % 1,013.26 mbar 1.1 m/s 217.63 Deg 7.9 µg/m3 1.31 µg/m3
2022-06-01 19:00 50.13 µg/m3 1.37 µg/m3 42.72 µg/m3 0.59 mg/m3 26.72 °C 56.42 % 1,012.71 mbar 1.42 m/s 154.85 Deg 7.73 µg/m3 0.89 µg/m3
2022-06-01 18:00 45.93 µg/m3 1.17 µg/m3 54.28 µg/m3 0.6 mg/m3 27.06 °C 50.88 % 1,012.41 mbar 2.15 m/s 188.24 Deg 10.65 µg/m3 1.78 µg/m3
2022-06-01 17:00 30.99 µg/m3 0.87 µg/m3 62.7 µg/m3 0.59 mg/m3 27.6 °C 46.41 % 1,012.74 mbar 2.88 m/s 188.97 Deg 6.8 µg/m3 1.31 µg/m3
2022-06-01 16:00 29.24 µg/m3 0.55 µg/m3 59.43 µg/m3 0.55 mg/m3 27.85 °C 51.58 % 1,013.12 mbar 2.77 m/s 110.39 Deg 9.47 µg/m3 0.84 µg/m3
2022-06-01 15:00 25.66 µg/m3 0.94 µg/m3 60 µg/m3 0.5 mg/m3 31.34 °C 26.77 % 1,013.41 mbar 1.95 m/s 112.28 Deg 13.18 µg/m3 0.52 µg/m3
2022-06-01 14:00 28.51 µg/m3 0.69 µg/m3 59.62 µg/m3 0.54 mg/m3 29.39 °C 39.87 % 1,013.55 mbar 2.1 m/s 192.4 Deg 9.22 µg/m3 0.65 µg/m3
2022-06-01 13:00 24.79 µg/m3 0.57 µg/m3 65.3 µg/m3 0.48 mg/m3 30.28 °C 30.53 % 1,013.79 mbar 2.42 m/s 21.2 Deg 8.81 µg/m3 0.68 µg/m3
2022-06-01 12:00 25.28 µg/m3 0.98 µg/m3 55.38 µg/m3 0.48 mg/m3 28.56 °C 44.64 % 1,014.29 mbar 2.13 m/s 65.49 Deg 12.3 µg/m3 0.42 µg/m3
2022-06-01 11:00 21.88 µg/m3 0.67 µg/m3 44.54 µg/m3 0.47 mg/m3 25.2 °C 64.92 % 1,014.41 mbar 2.49 m/s 119.66 Deg 8.16 µg/m3 8.03 µg/m3
2022-06-01 10:00 29.35 µg/m3 0.88 µg/m3 37.04 µg/m3 0.49 mg/m3 24.78 °C 68.75 % 1,014.07 mbar 2.35 m/s 183.19 Deg 14.82 µg/m3 0.16 µg/m3
2022-06-01 09:00 23.06 µg/m3 0.74 µg/m3 44.25 µg/m3 0.49 mg/m3 27.13 °C 49.51 % 1,013.70 mbar 2.47 m/s 177.72 Deg 11.48 µg/m3 7.14 µg/m3
2022-06-01 08:00 35.79 µg/m3 0.84 µg/m3 26.41 µg/m3 0.53 mg/m3 25.15 °C 62.43 % 1,013.64 mbar 1.11 m/s 165.24 Deg 20.68 µg/m3 0 µg/m3
2022-06-01 07:00 46.29 µg/m3 1.03 µg/m3 17.38 µg/m3 0.55 mg/m3 25.23 °C 57.72 % 1,013.39 mbar 1.2 m/s 20 Deg 28.8 µg/m3 1.78 µg/m3
2022-06-01 06:00 61.3 µg/m3 1.29 µg/m3 15.81 µg/m3 0.53 mg/m3 24.31 °C 53.72 % 1,012.96 mbar 1.19 m/s 186.92 Deg 60.07 µg/m3 2.78 µg/m3
2022-06-01 05:00 45.63 µg/m3 0.8 µg/m3 26.7 µg/m3 0.42 mg/m3 24.55 °C 48.84 % 1,012.83 mbar 1.03 m/s 230.04 Deg 28.92 µg/m3 1.52 µg/m3
2022-06-01 04:00 32.6 µg/m3 0.43 µg/m3 54.29 µg/m3 0.36 mg/m3 26.04 °C 40.85 % 1,012.83 mbar 0.73 m/s 170.51 Deg 9.24 µg/m3 5.46 µg/m3
2022-06-01 03:00 23.93 µg/m3 0.26 µg/m3 59.72 µg/m3 0.23 mg/m3 25.72 °C 41.61 % 1,013.00 mbar 3 m/s 241.68 Deg 2.17 µg/m3 0.16 µg/m3
2022-06-01 02:00 4.27 µg/m3 0.35 µg/m3 61.73 µg/m3 0.39 mg/m3 26.43 °C 35.44 % 1,013.38 mbar 3 m/s 220.1 Deg 1.03 µg/m3 2.05 µg/m3
2022-06-01 01:00 6.94 µg/m3 0.53 µg/m3 58.45 µg/m3 0.45 mg/m3 27.3 °C 32.53 % 1,013.71 mbar 2.44 m/s 224.85 Deg 1.66 µg/m3 0.37 µg/m3
2022-06-01 00:00 24.57 µg/m3 0.82 µg/m3 35.98 µg/m3 0.53 mg/m3 25.76 °C 38.66 % 1,014.05 mbar 0.58 m/s 263.27 Deg 3.39 µg/m3 2.52 µg/m3
2022-05-31 23:00 56.26 µg/m3 1.1 µg/m3 10.47 µg/m3 0.61 mg/m3 24.88 °C 45.82 % 1,014.22 mbar 0.37 m/s 250.54 Deg 17.49 µg/m3 1.63 µg/m3
2022-05-31 22:00 43.05 µg/m3 1.01 µg/m3 25.38 µg/m3 0.59 mg/m3 24.54 °C 48.15 % 1,014.22 mbar 0.54 m/s 192.71 Deg 12.57 µg/m3 2.15 µg/m3
2022-05-31 21:00 46.42 µg/m3 0.95 µg/m3 22.36 µg/m3 0.58 mg/m3 24.96 °C 47.08 % 1,033.10 mbar 0.72 m/s 212.09 Deg 16.25 µg/m3 3.41 µg/m3
2022-05-31 20:00 50.7 µg/m3 0.98 µg/m3 44.59 µg/m3 0.56 mg/m3 24.95 °C 57.5 % 1,013.60 mbar 0.81 m/s 199.72 Deg 11.03 µg/m3 2.05 µg/m3
2022-05-31 19:00 38.03 µg/m3 0.95 µg/m3 63.19 µg/m3 0.55 mg/m3 24.76 °C 65.07 % 1,013.56 mbar 1.67 m/s 181.55 Deg 7.82 µg/m3 4.2 µg/m3
2022-05-31 18:00 29.67 µg/m3 0.92 µg/m3 68.9 µg/m3 0.46 mg/m3 25.41 °C 63.97 % 1,013.28 mbar 2.41 m/s 198.55 Deg 6.62 µg/m3 0.47 µg/m3
2022-05-31 17:00 23.43 µg/m3 0.98 µg/m3 74.58 µg/m3 0.41 mg/m3 26.01 °C 60.92 % 1,013.36 mbar 2.47 m/s 51.45 Deg 8.26 µg/m3 0 µg/m3
2022-05-31 16:00 20.91 µg/m3 0.85 µg/m3 72.12 µg/m3 0.4 mg/m3 26.15 °C 60.08 % 1,013.64 mbar 2.34 m/s 199.26 Deg 5.95 µg/m3 3.36 µg/m3
2022-05-31 15:00 21.33 µg/m3 0.64 µg/m3 65.12 µg/m3 0.4 mg/m3 26.23 °C 59.92 % 1,013.79 mbar 2.66 m/s 192.43 Deg 13.02 µg/m3 0 µg/m3
2022-05-31 14:00 24.13 µg/m3 1.38 µg/m3 59.48 µg/m3 0.39 mg/m3 27.96 °C 50.85 % 1,013.76 mbar 2.63 m/s 52.06 Deg 10.99 µg/m3 0 µg/m3
2022-05-31 13:00 23.93 µg/m3 0.97 µg/m3 54.98 µg/m3 0.39 mg/m3 33.63 °C 24.66 % 1,013.65 mbar 3.66 m/s 187.59 Deg 11.37 µg/m3 0.16 µg/m3
2022-05-31 12:00 30.59 µg/m3 1.16 µg/m3 48.78 µg/m3 0.41 mg/m3 35.11 °C 20.21 % 1,013.74 mbar 3.22 m/s 182.22 Deg 17.48 µg/m3 1.47 µg/m3
2022-05-31 11:00 27.97 µg/m3 1 µg/m3 47.44 µg/m3 0.46 mg/m3 34.12 °C 21.61 % 1,013.87 mbar 4.35 m/s 201.23 Deg 18.48 µg/m3 0.63 µg/m3
2022-05-31 10:00 34.8 µg/m3 1.71 µg/m3 33.97 µg/m3 0.53 mg/m3 32.45 °C 24.42 % 1,013.72 mbar 4.01 m/s 202.92 Deg 24.52 µg/m3 1 µg/m3
2022-05-31 09:00 45.78 µg/m3 2.74 µg/m3 24.12 µg/m3 0.62 mg/m3 30.62 °C 29.18 % 1,013.39 mbar 4.16 m/s 198.24 Deg 38.41 µg/m3 1.47 µg/m3
2022-05-31 08:00 50.08 µg/m3 2.44 µg/m3 18.36 µg/m3 0.69 mg/m3 29.3 °C 33.78 % 1,013.33 mbar 1.43 m/s 158.44 Deg 41.09 µg/m3 2.89 µg/m3
2022-05-31 07:00 67.67 µg/m3 2.86 µg/m3 3.36 µg/m3 0.79 mg/m3 25.93 °C 46.01 % 1,012.92 mbar 0.39 m/s 284.05 Deg 132.76 µg/m3 4.78 µg/m3
2022-05-31 06:00 63.96 µg/m3 2.39 µg/m3 2 µg/m3 0.65 mg/m3 22.37 °C 64.02 % 1,012.81 mbar 0.33 m/s 282.18 Deg 135.16 µg/m3 2.68 µg/m3
2022-05-31 05:00 44.7 µg/m3 0.94 µg/m3 14.46 µg/m3 0.45 mg/m3 21.14 °C 73.2 % 1,012.66 mbar 0.62 m/s 176.87 Deg 50.78 µg/m3 1.1 µg/m3
2022-05-31 04:00 32.27 µg/m3 0.06 µg/m3 23.28 µg/m3 0.34 mg/m3 20.99 °C 80.55 % 1,012.59 mbar 0.46 m/s 211.73 Deg 5.8 µg/m3 0.52 µg/m3
2022-05-31 03:00 33.94 µg/m3 0.21 µg/m3 38.4 µg/m3 0.23 mg/m3 21.34 °C 82.27 % 1,012.75 mbar 0.88 m/s 264.96 Deg 3.62 µg/m3 0.1 µg/m3
2022-05-31 02:00 4.86 µg/m3 0.04 µg/m3 50.84 µg/m3 0.36 mg/m3 21.81 °C 80.17 % 1,012.89 mbar 1.68 m/s 262.49 Deg 0.67 µg/m3 0.1 µg/m3
2022-05-31 01:00 8.21 µg/m3 0.34 µg/m3 60.99 µg/m3 0.4 mg/m3 23.24 °C 65.14 % 1,013.40 mbar 2.21 m/s 270.81 Deg 1.15 µg/m3 1 µg/m3
2022-05-31 00:00 18.95 µg/m3 0.4 µg/m3 54.07 µg/m3 0.44 mg/m3 24.05 °C 51.44 % 1,012.61 mbar 0.86 m/s 136.21 Deg 2.51 µg/m3 0.79 µg/m3
2022-05-30 23:00 27.46 µg/m3 0.72 µg/m3 54.16 µg/m3 0.49 mg/m3 24.48 °C 47.52 % 1,012.64 mbar 0.68 m/s 243.52 Deg 2.32 µg/m3 1.63 µg/m3
2022-05-30 22:00 34.72 µg/m3 0.78 µg/m3 53.2 µg/m3 0.48 mg/m3 24.48 °C 48.67 % 1,012.40 mbar 0.85 m/s 287.23 Deg 3.41 µg/m3 1.52 µg/m3
2022-05-30 21:00 42.03 µg/m3 0.7 µg/m3 51.21 µg/m3 0.46 mg/m3 25.42 °C 44.44 % 1,011.92 mbar 0.75 m/s 185.95 Deg 6.29 µg/m3 1.21 µg/m3
2022-05-30 20:00 33.55 µg/m3 0.87 µg/m3 67.94 µg/m3 0.42 mg/m3 26.34 °C 40.63 % 1,011.38 mbar 1.16 m/s 187.9 Deg 5.4 µg/m3 0.89 µg/m3
2022-05-30 19:00 26.68 µg/m3 1.01 µg/m3 74.29 µg/m3 0.39 mg/m3 27.34 °C 39.71 % 1,011.06 mbar 1.91 m/s 199.87 Deg 5.26 µg/m3 1.05 µg/m3
2022-05-30 18:00 21.13 µg/m3 0.92 µg/m3 80.81 µg/m3 0.37 mg/m3 28.41 °C 38.32 % 1,010.64 mbar 1.9 m/s 224.89 Deg 5.6 µg/m3 0.68 µg/m3
2022-05-30 17:00 34.42 µg/m3 0.65 µg/m3 67.06 µg/m3 0.36 mg/m3 29.01 °C 37.22 % 1,010.60 mbar 2.99 m/s 192.71 Deg 11.19 µg/m3 0.79 µg/m3
2022-05-30 16:00 30.35 µg/m3 0.68 µg/m3 49.93 µg/m3 0.34 mg/m3 30.54 °C 26.33 % 1,010.67 mbar 3.06 m/s 162.96 Deg 12.21 µg/m3 0.26 µg/m3
2022-05-30 15:00 26.86 µg/m3 0.62 µg/m3 47.09 µg/m3 0.34 mg/m3 32.12 °C 20.89 % 1,010.62 mbar 3.87 m/s 194.63 Deg 15.46 µg/m3 0.31 µg/m3
2022-05-30 14:00 24.01 µg/m3 0.61 µg/m3 51.85 µg/m3 0.34 mg/m3 31.57 °C 22.01 % 1,011.09 mbar 4.44 m/s 211.19 Deg 14.82 µg/m3 0.42 µg/m3
2022-05-30 13:00 22.95 µg/m3 0.77 µg/m3 52.6 µg/m3 0.36 mg/m3 31.96 °C 21.01 % 1,011.16 mbar 4.07 m/s 195.34 Deg 11.43 µg/m3 0.26 µg/m3
2022-05-30 12:00 25.02 µg/m3 0.82 µg/m3 47.92 µg/m3 0.37 mg/m3 31.92 °C 20.94 % 1,011.34 mbar 3.61 m/s 163.3 Deg 15.19 µg/m3 1.42 µg/m3
2022-05-30 11:00 29.13 µg/m3 0.76 µg/m3 49.43 µg/m3 0.41 mg/m3 31.02 °C 23.97 % 1,011.33 mbar 3.68 m/s 204.94 Deg 20.26 µg/m3 0.37 µg/m3
2022-05-30 10:00 28.37 µg/m3 0.6 µg/m3 50.04 µg/m3 0.45 mg/m3 28.96 °C 32.48 % 1,011.31 mbar 3.38 m/s 184.46 Deg 15.26 µg/m3 7.14 µg/m3
2022-05-30 09:00 32.67 µg/m3 0.66 µg/m3 43.71 µg/m3 0.49 mg/m3 27.79 °C 36.3 % 1,011.18 mbar 3.42 m/s 214.25 Deg 22.54 µg/m3 0 µg/m3
2022-05-30 08:00 40.67 µg/m3 0.86 µg/m3 35.84 µg/m3 0.52 mg/m3 26.99 °C 37.67 % 1,010.81 mbar 2.4 m/s 218.99 Deg 27.44 µg/m3 2.73 µg/m3
2022-05-30 07:00 62.43 µg/m3 1.26 µg/m3 18.48 µg/m3 0.55 mg/m3 24.05 °C 51.67 % 1,010.35 mbar 1.34 m/s 177.3 Deg 59.13 µg/m3 0.84 µg/m3
2022-05-30 06:00 56.63 µg/m3 1.02 µg/m3 19.94 µg/m3 0.46 mg/m3 21.1 °C 63.51 % 1,009.83 mbar 1.45 m/s 209.34 Deg 47.96 µg/m3 0 µg/m3
2022-05-30 05:00 39.04 µg/m3 0.38 µg/m3 32.96 µg/m3 0.36 mg/m3 20.44 °C 72.61 % 1,009.46 mbar 1.83 m/s 226.64 Deg 22.99 µg/m3 0 µg/m3
2022-05-30 04:00 14.97 µg/m3 0.27 µg/m3 61.98 µg/m3 0.3 mg/m3 20.82 °C 72.95 % 1,009.51 mbar 2.41 m/s 249.62 Deg 1.74 µg/m3 0 µg/m3
2022-05-30 03:00 23.55 µg/m3 -0.04 µg/m3 63.61 µg/m3 0.22 mg/m3 20.85 °C 63.98 % 1,009.62 mbar 3.15 m/s 205.31 Deg 1.61 µg/m3 0 µg/m3
2022-05-30 02:00 16.45 µg/m3 0.18 µg/m3 58.01 µg/m3 0.38 mg/m3 20.97 °C 55.6 % 1,009.43 mbar 1.62 m/s 190.18 Deg 3.65 µg/m3 0 µg/m3
2022-05-30 01:00 16.44 µg/m3 0.15 µg/m3 53.01 µg/m3 0.4 mg/m3 20.5 °C 63.03 % 1,009.63 mbar 1.58 m/s 225.15 Deg 1.97 µg/m3 0 µg/m3
2022-05-30 00:00 13.56 µg/m3 0.06 µg/m3 58.81 µg/m3 0.36 mg/m3 20.78 °C 67.3 % 1,009.78 mbar 2.16 m/s 211.14 Deg 2.14 µg/m3 0 µg/m3
2022-05-29 23:00 22.05 µg/m3 0.24 µg/m3 53.09 µg/m3 0.36 mg/m3 20.82 °C 74.76 % 1,009.85 mbar 3.14 m/s 235.85 Deg 6.54 µg/m3 0 µg/m3
2022-05-29 22:00 17.72 µg/m3 0.11 µg/m3 57.02 µg/m3 0.35 mg/m3 20.82 °C 81.97 % 1,009.71 mbar 4.13 m/s 233.25 Deg 4.4 µg/m3 0 µg/m3
2022-05-29 21:00 18.22 µg/m3 0.15 µg/m3 63.35 µg/m3 0.35 mg/m3 21.21 °C 80 % 1,009.12 mbar 3.32 m/s 240.12 Deg 2.86 µg/m3 0 µg/m3
2022-05-29 20:00 22.25 µg/m3 0.13 µg/m3 66.04 µg/m3 0.34 mg/m3 21.63 °C 69.61 % 1,008.32 mbar 3.85 m/s 185.79 Deg 3.47 µg/m3 0 µg/m3
2022-05-29 19:00 12.9 µg/m3 0.3 µg/m3 77.72 µg/m3 0.3 mg/m3 22.26 °C 73.25 % 1,008.04 mbar 4.35 m/s 211.07 Deg 1.75 µg/m3 0 µg/m3
2022-05-29 18:00 10.67 µg/m3 0.06 µg/m3 79.4 µg/m3 0.31 mg/m3 22.73 °C 73.18 % 1,007.83 mbar 4.99 m/s 233.75 Deg 2.64 µg/m3 0 µg/m3
2022-05-29 17:00 10 µg/m3 0.06 µg/m3 81.28 µg/m3 0.29 mg/m3 22.88 °C 71.61 % 1,007.75 mbar 5.99 m/s 232.36 Deg 2.88 µg/m3 0 µg/m3
2022-05-29 16:00 10.27 µg/m3 0.11 µg/m3 79.84 µg/m3 0.29 mg/m3 23.34 °C 68.98 % 1,007.71 mbar 5.75 m/s 244.57 Deg 3.35 µg/m3 0 µg/m3
2022-05-29 15:00 7.63 µg/m3 0.16 µg/m3 83.34 µg/m3 0.29 mg/m3 22.78 °C 70.87 % 1,007.62 mbar 6.63 m/s 264.16 Deg 3 µg/m3 0 µg/m3
2022-05-29 14:00 7.43 µg/m3 0.02 µg/m3 83.65 µg/m3 0.3 mg/m3 22.29 °C 77.7 % 1,007.65 mbar 6.31 m/s 280.04 Deg 2.14 µg/m3 0 µg/m3
2022-05-29 13:00 7.55 µg/m3 0.09 µg/m3 79.52 µg/m3 0.31 mg/m3 22.06 °C 80.23 % 1,007.46 mbar 6.05 m/s 277.35 Deg 2.17 µg/m3 0 µg/m3
2022-05-29 12:00 9.81 µg/m3 0.24 µg/m3 73.93 µg/m3 0.32 mg/m3 22.09 °C 79.47 % 1,007.29 mbar 5.56 m/s 289.91 Deg 3.46 µg/m3 0 µg/m3
2022-05-29 11:00 9.42 µg/m3 0.01 µg/m3 69.08 µg/m3 0.33 mg/m3 21.78 °C 79.17 % 1,007.20 mbar 5.4 m/s 270.68 Deg 3.66 µg/m3 0 µg/m3
2022-05-29 10:00 9.28 µg/m3 0 µg/m3 67.8 µg/m3 0.31 mg/m3 21.5 °C 83.32 % 1,007.00 mbar 4.7 m/s 267.21 Deg 3.25 µg/m3 0 µg/m3
2022-05-29 09:00 11.27 µg/m3 0.05 µg/m3 72.07 µg/m3 0.3 mg/m3 21.17 °C 82.86 % 1,006.51 mbar 4.28 m/s 278.95 Deg 3.02 µg/m3 0 µg/m3
2022-05-29 08:00 11.18 µg/m3 0.25 µg/m3 72.62 µg/m3 0.29 mg/m3 21.06 °C 81.32 % 1,005.90 mbar 3.39 m/s 308.11 Deg 2.36 µg/m3 0 µg/m3
2022-05-29 07:00 8.99 µg/m3 0.04 µg/m3 71.9 µg/m3 0.27 mg/m3 20.29 °C 86.16 % 1,005.48 mbar 3.4 m/s 288.72 Deg 1.4 µg/m3 0 µg/m3
2022-05-29 06:00 8.11 µg/m3 -0.1 µg/m3 71.03 µg/m3 0.27 mg/m3 19.81 °C 88.28 % 1,005.02 mbar 3.45 m/s 277.78 Deg 1.04 µg/m3 0 µg/m3
2022-05-29 05:00 7.16 µg/m3 -0.24 µg/m3 72.46 µg/m3 0.26 mg/m3 19.54 °C 88.23 % 1,004.50 mbar 2.9 m/s 287.34 Deg 0.33 µg/m3 0 µg/m3
2022-05-29 04:00 9.9 µg/m3 0.1 µg/m3 72.32 µg/m3 0.25 mg/m3 19.52 °C 89.07 % 1,004.10 mbar 3.25 m/s 284.7 Deg 0.28 µg/m3 0 µg/m3
2022-05-29 03:00 21.97 µg/m3 -0.11 µg/m3 71.92 µg/m3 0.16 mg/m3 19.35 °C 92.37 % 1,004.15 mbar 3.41 m/s 278.83 Deg 0.54 µg/m3 0 µg/m3
2022-05-29 02:00 3.67 µg/m3 -0.1 µg/m3 72.31 µg/m3 0.24 mg/m3 19.78 °C 93.17 % 1,004.29 mbar 4.9 m/s 262.65 Deg 0.58 µg/m3 0 µg/m3
2022-05-29 01:00 4.27 µg/m3 -0.32 µg/m3 75.01 µg/m3 0.24 mg/m3 20.47 °C 88.15 % 1,004.70 mbar 5.62 m/s 260.1 Deg 0.67 µg/m3 0 µg/m3
2022-05-29 00:00 4.6 µg/m3 -0.07 µg/m3 74.04 µg/m3 0.26 mg/m3 20.34 °C 88.37 % 1,005.18 mbar 6.75 m/s 263.77 Deg 1.01 µg/m3 0 µg/m3
2022-05-28 23:00 4.9 µg/m3 -0.13 µg/m3 71.42 µg/m3 0.28 mg/m3 20.46 °C 89.29 % 1,005.45 mbar 6.63 m/s 257.08 Deg 1.35 µg/m3 0 µg/m3
2022-05-28 22:00 7.38 µg/m3 -0.04 µg/m3 70.83 µg/m3 0.29 mg/m3 21.03 °C 87.41 % 1,005.48 mbar 5.71 m/s 240.15 Deg 2.08 µg/m3 0 µg/m3
2022-05-28 21:00 10.08 µg/m3 -0.03 µg/m3 68.82 µg/m3 0.29 mg/m3 21.01 °C 86.55 % 1,005.64 mbar 4.52 m/s 245.99 Deg 2.51 µg/m3 0 µg/m3
2022-05-28 20:00 14.79 µg/m3 0.3 µg/m3 67 µg/m3 0.3 mg/m3 21.15 °C 84.38 % 1,005.46 mbar 4.12 m/s 246.93 Deg 3.24 µg/m3 0 µg/m3
2022-05-28 19:00 13.6 µg/m3 0.1 µg/m3 69.35 µg/m3 0.3 mg/m3 21.34 °C 81.1 % 1,005.47 mbar 4.12 m/s 256.52 Deg 2.77 µg/m3 0 µg/m3
2022-05-28 18:00 12.99 µg/m3 0.08 µg/m3 71.91 µg/m3 0.29 mg/m3 22.31 °C 73.74 % 1,005.58 mbar 4.41 m/s 234.39 Deg 4.75 µg/m3 0 µg/m3
2022-05-28 17:00 13.1 µg/m3 0.07 µg/m3 73.2 µg/m3 0.3 mg/m3 22.49 °C 73.98 % 1,006.02 mbar 4.58 m/s 220.43 Deg 4.47 µg/m3 0 µg/m3
2022-05-28 16:00 11.3 µg/m3 0.09 µg/m3 75.96 µg/m3 0.29 mg/m3 22.44 °C 74.3 % 1,006.50 mbar 5.13 m/s 217.27 Deg 3.8 µg/m3 0 µg/m3
2022-05-28 15:00 10.45 µg/m3 0.27 µg/m3 75.96 µg/m3 0.29 mg/m3 22.41 °C 74.24 % 1,006.95 mbar 5.42 m/s 226.01 Deg 3.74 µg/m3 0 µg/m3
2022-05-28 14:00 11.22 µg/m3 0.19 µg/m3 75.94 µg/m3 0.3 mg/m3 22.21 °C 74.25 % 1,007.45 mbar 5.21 m/s 223.44 Deg 3.75 µg/m3 0 µg/m3
2022-05-28 13:00 8.52 µg/m3 0.19 µg/m3 77.61 µg/m3 0.29 mg/m3 22.23 °C 71 % 1,007.82 mbar 4.64 m/s 272.89 Deg 2.59 µg/m3 0 µg/m3
2022-05-28 12:00 12.45 µg/m3 0.24 µg/m3 72.77 µg/m3 0.29 mg/m3 22.29 °C 69.68 % 1,008.10 mbar 24.63 m/s 244.2 Deg 5.09 µg/m3 0 µg/m3
2022-05-28 11:00 10.94 µg/m3 0.23 µg/m3 75.13 µg/m3 0.28 mg/m3 22.45 °C 67.24 % 1,008.17 mbar 4.53 m/s 277.87 Deg 3.86 µg/m3 0 µg/m3
2022-05-28 10:00 11.72 µg/m3 0.14 µg/m3 75.86 µg/m3 0.28 mg/m3 22.18 °C 68.02 % 1,008.17 mbar 4.37 m/s 267.52 Deg 4.05 µg/m3 0 µg/m3
2022-05-28 09:00 11.66 µg/m3 0.2 µg/m3 72.2 µg/m3 0.28 mg/m3 21.54 °C 71.77 % 1,008.44 mbar 4.85 m/s 227.21 Deg 5.06 µg/m3 0 µg/m3
2022-05-28 08:00 14.2 µg/m3 0.14 µg/m3 69.71 µg/m3 0.28 mg/m3 21.57 °C 70.52 % 1,008.36 mbar 3.76 m/s 281.73 Deg 4.36 µg/m3 0 µg/m3
2022-05-28 07:00 15.64 µg/m3 0.33 µg/m3 68.64 µg/m3 0.27 mg/m3 20.9 °C 73.29 % 1,008.58 mbar 2.95 m/s 246.9 Deg 3.47 µg/m3 0 µg/m3
2022-05-28 06:00 15.84 µg/m3 0.02 µg/m3 66.64 µg/m3 0.26 mg/m3 19.95 °C 82.29 % 1,008.74 mbar 2.16 m/s 286.68 Deg 2.69 µg/m3 0 µg/m3
2022-05-28 05:00 12.7 µg/m3 -0.02 µg/m3 70.29 µg/m3 0.25 mg/m3 19.52 °C 92.2 % 1,008.54 mbar 2.41 m/s 279.44 Deg 1.27 µg/m3 0.1 µg/m3
2022-05-28 04:00 16.16 µg/m3 -0.1 µg/m3 59.8 µg/m3 0.24 mg/m3 19.82 °C 94.53 % 1,008.38 mbar 2.94 m/s 282.86 Deg 1.17 µg/m3 0.21 µg/m3
2022-05-28 03:00 27.87 µg/m3 -0.02 µg/m3 59.91 µg/m3 0.17 mg/m3 19.88 °C 95.58 % 1,008.44 mbar 3.43 m/s 271.49 Deg 1.27 µg/m3 0.21 µg/m3
2022-05-28 02:00 10.27 µg/m3 -0.15 µg/m3 57.26 µg/m3 0.3 mg/m3 19.84 °C 97.01 % 1,008.69 mbar 3.11 m/s 273.15 Deg 0.91 µg/m3 0.1 µg/m3
2022-05-28 01:00 5.82 µg/m3 -0.03 µg/m3 64.26 µg/m3 0.32 mg/m3 20.08 °C 96.61 % 1,008.95 mbar 3.02 m/s 267.99 Deg 0.76 µg/m3 0.39 µg/m3
2022-05-28 00:00 7.31 µg/m3 -0.03 µg/m3 61.48 µg/m3 0.35 mg/m3 20.15 °C 95.35 % 1,009.36 mbar 3.2 m/s 264.4 Deg 1.14 µg/m3 0.47 µg/m3
2022-05-27 23:00 9.45 µg/m3 0.42 µg/m3 57.71 µg/m3 0.39 mg/m3 20.21 °C 95.18 % 1,009.39 mbar 2.89 m/s 257.37 Deg 1.31 µg/m3 0.55 µg/m3
2022-05-27 22:00 12.42 µg/m3 0.08 µg/m3 54.45 µg/m3 0.4 mg/m3 20.37 °C 93.57 % 1,009.38 mbar 2.73 m/s 256.45 Deg 1.76 µg/m3 1.05 µg/m3
2022-05-27 21:00 22.05 µg/m3 0.55 µg/m3 47.07 µg/m3 0.44 mg/m3 20.82 °C 89.76 % 1,008.88 mbar 1.62 m/s 244.27 Deg 4.94 µg/m3 1.15 µg/m3
2022-05-27 20:00 18.38 µg/m3 0.31 µg/m3 63.33 µg/m3 0.41 mg/m3 21.84 °C 84.96 % 1,008.47 mbar 2.18 m/s 252.78 Deg 2.81 µg/m3 1.21 µg/m3
2022-05-27 19:00 25.02 µg/m3 0.21 µg/m3 58.16 µg/m3 0.42 mg/m3 23.31 °C 77.42 % 1,008.25 mbar 2.21 m/s 215.77 Deg 5.33 µg/m3 1.18 µg/m3
2022-05-27 18:00 23 µg/m3 0.37 µg/m3 61.55 µg/m3 0.4 mg/m3 24.34 °C 68.77 % 1,007.90 mbar 1.63 m/s 184.26 Deg 5.7 µg/m3 0.84 µg/m3
2022-05-27 17:00 20.21 µg/m3 0.74 µg/m3 63.01 µg/m3 0.4 mg/m3 25.68 °C 61.8 % 1,008.33 mbar 2.25 m/s 152.58 Deg 7.21 µg/m3 0.81 µg/m3
2022-05-27 16:00 19.63 µg/m3 0.47 µg/m3 65.68 µg/m3 0.39 mg/m3 26.48 °C 56.88 % 1,009.01 mbar 1.97 m/s 130.66 Deg 6.12 µg/m3 0.73 µg/m3
2022-05-27 15:00 22.75 µg/m3 0.44 µg/m3 65.42 µg/m3 0.4 mg/m3 26.29 °C 56.8 % 1,009.64 mbar 1.7 m/s 212.12 Deg 7.66 µg/m3 0.76 µg/m3
2022-05-27 14:00 21.58 µg/m3 0.45 µg/m3 69.02 µg/m3 0.39 mg/m3 26.97 °C 51.61 % 1,010.02 mbar 1.88 m/s 180.66 Deg 7.17 µg/m3 0.63 µg/m3
2022-05-27 13:00 19.49 µg/m3 0.49 µg/m3 64.69 µg/m3 0.4 mg/m3 25.99 °C 56.01 % 1,009.65 mbar 2.4 m/s 147.96 Deg 5.96 µg/m3 0.52 µg/m3
2022-05-27 12:00 21.52 µg/m3 0.4 µg/m3 64.77 µg/m3 0.42 mg/m3 24.95 °C 60.54 % 1,010.60 mbar 2.96 m/s 117.17 Deg 5.32 µg/m3 0.44 µg/m3
2022-05-27 11:00 17.3 µg/m3 0.52 µg/m3 66.98 µg/m3 0.41 mg/m3 25.48 °C 61.98 % 1,010.31 mbar 3.26 m/s 240.58 Deg 5.29 µg/m3 0.73 µg/m3
2022-05-27 10:00 19.05 µg/m3 0.37 µg/m3 59.75 µg/m3 0.41 mg/m3 23.44 °C 73.23 % 1,010.74 mbar 3.54 m/s 34.72 Deg 5.33 µg/m3 1 µg/m3
2022-05-27 09:00 35.22 µg/m3 0.56 µg/m3 45.18 µg/m3 0.41 mg/m3 22.84 °C 72.55 % 1,013.17 mbar 3.08 m/s 61.56 Deg 8.16 µg/m3 0.98 µg/m3
2022-05-27 08:00 25.87 µg/m3 0.29 µg/m3 56.89 µg/m3 0.38 mg/m3 22.97 °C 70.96 % 1,012.60 mbar 2.17 m/s 163.89 Deg 6.61 µg/m3 0.84 µg/m3
2022-05-27 07:00 31.99 µg/m3 0.5 µg/m3 51.29 µg/m3 0.37 mg/m3 22.34 °C 75.53 % 1,011.88 mbar 3.22 m/s 176.93 Deg 8.58 µg/m3 0.82 µg/m3
2022-05-27 06:00 30.19 µg/m3 0.5 µg/m3 59.03 µg/m3 0.35 mg/m3 22.14 °C 77.99 % 1,013.09 mbar 2.71 m/s 125.9 Deg 7.88 µg/m3 1.33 µg/m3
2022-05-27 05:00 15.64 µg/m3 0.1 µg/m3 73.97 µg/m3 0.34 mg/m3 22.32 °C 71.11 % 1,011.39 mbar 2.85 m/s 211.05 Deg 1.39 µg/m3 0.18 µg/m3
2022-05-27 04:00 13.14 µg/m3 0.15 µg/m3 77.39 µg/m3 0.34 mg/m3 22.58 °C 66.31 % 1,011.22 mbar 2.78 m/s 47.4 Deg 0.83 µg/m3 0.1 µg/m3
2022-05-27 03:00 23.8 µg/m3 0.15 µg/m3 73.3 µg/m3 0.23 mg/m3 22.82 °C 66.01 % 1,011.61 mbar 2.89 m/s 55.33 Deg 0.57 µg/m3 0.1 µg/m3
2022-05-27 02:00 9.2 µg/m3 0.19 µg/m3 71.22 µg/m3 0.35 mg/m3 22.51 °C 68.47 % 1,012.74 mbar 1.8 m/s 194.27 Deg 0.85 µg/m3 0.1 µg/m3
2022-05-27 01:00 6.55 µg/m3 0.08 µg/m3 69.04 µg/m3 0.37 mg/m3 22.02 °C 76.07 % 1,013.45 mbar 2.15 m/s 119.1 Deg 0.68 µg/m3 0.56 µg/m3
2022-05-27 00:00 9.36 µg/m3 0.24 µg/m3 64.21 µg/m3 0.39 mg/m3 21.82 °C 81.41 % 1,013.89 mbar 2.53 m/s 76.09 Deg 1 µg/m3 0.45 µg/m3
2022-05-26 23:00 16.32 µg/m3 0.37 µg/m3 59.75 µg/m3 0.41 mg/m3 22 °C 81.81 % 1,014.64 mbar 1.95 m/s 43.39 Deg 1.63 µg/m3 0.97 µg/m3
2022-05-26 22:00 17.35 µg/m3 0.56 µg/m3 63.34 µg/m3 0.42 mg/m3 22.88 °C 75.37 % 1,014.69 mbar 1.68 m/s 107.64 Deg 2.19 µg/m3 0.5 µg/m3
2022-05-26 21:00 20.12 µg/m3 0.81 µg/m3 60.64 µg/m3 0.43 mg/m3 24.18 °C 60.14 % 1,014.71 mbar 1.69 m/s 166.68 Deg 2.52 µg/m3 0.92 µg/m3
2022-05-26 20:00 22.29 µg/m3 0.74 µg/m3 57.05 µg/m3 0.45 mg/m3 24.83 °C 55.62 % 1,013.23 mbar 1.73 m/s 101.43 Deg 3.39 µg/m3 0.89 µg/m3
2022-05-26 19:00 26.58 µg/m3 1.02 µg/m3 54.23 µg/m3 0.44 mg/m3 24.76 °C 62.26 % 1,012.75 mbar 2.05 m/s 198.99 Deg 4.98 µg/m3 0.97 µg/m3
2022-05-26 18:00 33.19 µg/m3 1 µg/m3 44.09 µg/m3 0.45 mg/m3 25.52 °C 62.02 % 1,013.29 mbar 2.13 m/s 199.84 Deg 7.37 µg/m3 1.15 µg/m3
2022-05-26 17:00 31.69 µg/m3 0.98 µg/m3 56.72 µg/m3 0.43 mg/m3 27.6 °C 50.13 % 1,014.59 mbar 1.64 m/s 179.09 Deg 9.69 µg/m3 0.42 µg/m3
2022-05-26 16:00 21.12 µg/m3 0.83 µg/m3 63.71 µg/m3 0.4 mg/m3 30.28 °C 30.76 % 1,014.95 mbar 1.82 m/s 104.52 Deg 5.8 µg/m3 0.42 µg/m3
2022-05-26 15:00 24.26 µg/m3 0.85 µg/m3 62.31 µg/m3 0.42 mg/m3 29.07 °C 40.44 % 1,015.17 mbar 2.39 m/s 210.18 Deg 7.54 µg/m3 0.47 µg/m3
2022-05-26 14:00 27.28 µg/m3 0.94 µg/m3 64.5 µg/m3 0.42 mg/m3 31.04 °C 30.35 % 1,015.58 mbar 1.93 m/s 268.7 Deg 11.95 µg/m3 0.39 µg/m3
2022-05-26 13:00 23.95 µg/m3 1.21 µg/m3 65.24 µg/m3 0.42 mg/m3 31.42 °C 26.72 % 1,015.84 mbar 1.81 m/s 122.58 Deg 6.83 µg/m3 0.65 µg/m3
2022-05-26 12:00 25.75 µg/m3 0.86 µg/m3 64.53 µg/m3 0.44 mg/m3 29.27 °C 37.97 % 1,015.99 mbar 2.02 m/s 154.54 Deg 8.93 µg/m3 1.05 µg/m3
2022-05-26 11:00 27.79 µg/m3 0.99 µg/m3 65 µg/m3 0.44 mg/m3 26.88 °C 49.72 % 1,015.98 mbar 2.77 m/s 134.98 Deg 8.42 µg/m3 1.12 µg/m3

It is to be noted that the data is provisional and subject to quality assurance procedures. For validated data kindly refer your request to contact.air@era.org.mt